IT9IJI-13 Weather Reports


Display with metric or nautical units.
time (UTC)temp
F
wind
direction
speed
MPH
gust
MPH
rain 1hr
in
rain 24hr
in
rain mn
in
humidity
%
barometer
mb
20260904122403 89 300 5.0 15.0 0.00 0.00 0.00 55 1017.7
20260904122306 89 299 5.0 15.0 0.00 0.00 0.00 56 1017.6
20260904122203 89 301 5.0 15.0 0.00 0.00 0.00 56 1017.7
20260904122103 89 299 5.0 10.0 0.00 0.00 0.00 56 1017.7
20260904122003 89 300 5.0 10.0 0.00 0.00 0.00 56 1017.7
20260904121903 89 298 5.0 10.0 0.00 0.00 0.00 56 1017.8
20260904121803 89 298 5.0 12.0 0.00 0.00 0.00 56 1017.6
20260904121703 89 298 5.0 14.0 0.00 0.00 0.00 56 1017.5
20260904121603 89 297 5.0 14.0 0.00 0.00 0.00 56 1017.5
20260904121503 89 297 5.0 14.0 0.00 0.00 0.00 56 1017.6
20260904121403 89 298 5.0 14.0 0.00 0.00 0.00 56 1017.5
20260904121303 89 298 5.0 14.0 0.00 0.00 0.00 56 1017.5
20260904121203 89 296 5.0 14.0 0.00 0.00 0.00 56 1017.5
20260904121103 89 298 5.0 14.0 0.00 0.00 0.00 56 1017.5
20260904121003 89 298 5.0 14.0 0.00 0.00 0.00 56 1017.5
20260904120903 89 298 5.0 14.0 0.00 0.00 0.00 55 1017.5
20260904120803 89 298 4.0 14.0 0.00 0.00 0.00 56 1017.6
20260904120703 89 300 4.0 14.0 0.00 0.00 0.00 56 1017.5
20260904120603 90 300 3.0 8.0 0.00 0.00 0.00 56 1017.5
20260904120503 90 299 3.0 8.0 0.00 0.00 0.00 56 1017.5
20260904120403 90 297 3.0 9.0 0.00 0.00 0.00 56 1017.6
20260904120303 90 300 3.0 9.0 0.00 0.00 0.00 56 1017.6
20260904120203 90 303 3.0 9.0 0.00 0.00 0.00 57 1017.6
20260904120003 89 303 3.0 11.0 0.00 0.00 0.00 57 1017.7
20260904115903 89 301 3.0 11.0 0.00 0.00 0.00 57 1017.6
20260904115803 89 301 4.0 11.0 0.00 0.00 0.00 57 1017.6
20260904115703 89 299 4.0 11.0 0.00 0.00 0.00 57 1017.7
20260904115603 89 299 4.0 11.0 0.00 0.00 0.00 57 1017.6
20260904115503 89 299 4.0 11.0 0.00 0.00 0.00 57 1017.7
20260904115403 89 300 4.0 11.0 0.00 0.00 0.00 57 1017.7
20260904115306 89 300 4.0 11.0 0.00 0.00 0.00 57 1017.7
20260904115203 89 299 3.0 11.0 0.00 0.00 0.00 57 1017.7
20260904115103 89 299 3.0 9.0 0.00 0.00 0.00 57 1017.6
20260904115003 89 299 3.0 9.0 0.00 0.00 0.00 57 1017.6
20260904114903 89 300 3.0 9.0 0.00 0.00 0.00 57 1017.7
20260904114803 89 300 3.0 8.0 0.00 0.00 0.00 58 1017.7
20260904114704 89 301 3.0 8.0 0.00 0.00 0.00 58 1017.6
20260904114604 89 301 3.0 8.0 0.00 0.00 0.00 58 1017.6
20260904114504 89 301 3.0 8.0 0.00 0.00 0.00 58 1017.6
20260904114404 89 302 3.0 8.0 0.00 0.00 0.00 58 1017.6
20260904114304 89 301 3.0 8.0 0.00 0.00 0.00 58 1017.6
20260904114204 89 298 3.0 10.0 0.00 0.00 0.00 58 1017.6
20260904114104 89 294 4.0 15.0 0.00 0.00 0.00 58 1017.7
20260904114004 89 293 4.0 15.0 0.00 0.00 0.00 59 1017.6
20260904113904 89 293 4.0 15.0 0.00 0.00 0.00 59 1017.6
20260904113804 89 293 4.0 15.0 0.00 0.00 0.00 59 1017.7
20260904113704 89 292 4.0 15.0 0.00 0.00 0.00 59 1017.8
20260904113604 89 293 4.0 15.0 0.00 0.00 0.00 59 1017.8
20260904113504 89 293 4.0 15.0 0.00 0.00 0.00 59 1017.8
20260904113404 89 293 5.0 15.0 0.00 0.00 0.00 59 1017.6
20260904113304 89 293 5.0 15.0 0.00 0.00 0.00 59 1017.7
20260904113204 89 294 5.0 15.0 0.00 0.00 0.00 59 1017.7
20260904113104 89 296 4.0 11.0 0.00 0.00 0.00 59 1017.7
20260904113004 89 296 4.0 11.0 0.00 0.00 0.00 59 1017.7
20260904112904 89 296 4.0 11.0 0.00 0.00 0.00 59 1017.8
20260904112804 89 295 4.0 11.0 0.00 0.00 0.00 59 1017.8
20260904112704 89 296 4.0 11.0 0.00 0.00 0.00 59 1017.7
20260904112604 89 294 5.0 13.0 0.00 0.00 0.00 59 1017.8
20260904112504 89 295 5.0 13.0 0.00 0.00 0.00 59 1017.9
20260904112404 89 294 5.0 13.0 0.00 0.00 0.00 59 1017.8
20260904112306 89 295 5.0 13.0 0.00 0.00 0.00 59 1017.8
20260904112204 89 295 5.0 13.0 0.00 0.00 0.00 59 1017.8
20260904112104 89 296 5.0 13.0 0.00 0.00 0.00 59 1017.7
20260904112004 89 296 5.0 13.0 0.00 0.00 0.00 59 1017.8
20260904111904 89 296 4.0 13.0 0.00 0.00 0.00 59 1017.7
20260904111804 89 296 5.0 13.0 0.00 0.00 0.00 59 1017.7
20260904111704 89 297 5.0 14.0 0.00 0.00 0.00 59 1017.8
20260904111604 89 297 4.0 14.0 0.00 0.00 0.00 60 1017.7
20260904111504 89 296 4.0 14.0 0.00 0.00 0.00 60 1017.7
20260904111404 89 298 4.0 14.0 0.00 0.00 0.00 60 1017.7
20260904111304 89 295 4.0 14.0 0.00 0.00 0.00 61 1017.8
20260904111204 89 295 4.0 14.0 0.00 0.00 0.00 61 1017.8
20260904111104 89 294 4.0 14.0 0.00 0.00 0.00 61 1017.8
20260904111004 89 294 5.0 14.0 0.00 0.00 0.00 61 1017.9
20260904110904 89 296 5.0 14.0 0.00 0.00 0.00 61 1017.9
20260904110804 89 297 4.0 14.0 0.00 0.00 0.00 61 1017.9
20260904110704 89 297 4.0 10.0 0.00 0.00 0.00 61 1017.9
20260904110604 89 297 5.0 11.0 0.00 0.00 0.00 61 1017.8
20260904110504 89 299 5.0 11.0 0.00 0.00 0.00 61 1017.7
20260904110403 89 300 5.0 11.0 0.00 0.00 0.00 61 1017.7
20260904110304 89 301 5.0 11.0 0.00 0.00 0.00 61 1017.7
20260904110203 89 300 5.0 11.0 0.00 0.00 0.00 62 1017.8
20260904110103 89 299 5.0 13.0 0.00 0.00 0.00 62 1017.8
20260904110004 89 299 5.0 13.0 0.00 0.00 0.00 62 1017.8
20260904105903 89 298 5.0 13.0 0.00 0.00 0.00 62 1017.7
20260904105803 89 297 5.0 13.0 0.00 0.00 0.00 62 1017.7
20260904105703 89 298 5.0 13.0 0.00 0.00 0.00 61 1017.9
20260904105603 89 298 5.0 13.0 0.00 0.00 0.00 61 1017.9
20260904105503 89 297 4.0 13.0 0.00 0.00 0.00 61 1017.8
20260904105403 89 297 4.0 13.0 0.00 0.00 0.00 61 1017.8
20260904105306 89 297 5.0 13.0 0.00 0.00 0.00 61 1017.8
20260904105203 89 296 4.0 13.0 0.00 0.00 0.00 61 1017.7
20260904105104 89 298 4.0 11.0 0.00 0.00 0.00 61 1017.8
20260904105003 89 303 4.0 11.0 0.00 0.00 0.00 61 1017.9
20260904104903 89 304 5.0 11.0 0.00 0.00 0.00 61 1017.9
20260904104803 89 303 5.0 11.0 0.00 0.00 0.00 60 1017.9
20260904104703 89 302 4.0 10.0 0.00 0.00 0.00 60 1017.8
20260904104603 89 302 5.0 13.0 0.00 0.00 0.00 60 1017.8
20260904104504 89 302 5.0 13.0 0.00 0.00 0.00 60 1017.7
20260904104403 89 301 5.0 13.0 0.00 0.00 0.00 60 1017.6
20260904104303 89 301 5.0 13.0 0.00 0.00 0.00 60 1017.7
20260904104203 89 302 5.0 13.0 0.00 0.00 0.00 60 1017.6
20260904104103 89 301 5.0 13.0 0.00 0.00 0.00 60 1017.6
20260904104004 89 299 5.0 13.0 0.00 0.00 0.00 60 1017.6
20260904103903 89 298 5.0 13.0 0.00 0.00 0.00 60 1017.7
20260904103803 89 298 4.0 13.0 0.00 0.00 0.00 60 1017.7
20260904103703 89 299 4.0 13.0 0.00 0.00 0.00 61 1017.7
20260904103604 89 298 4.0 13.0 0.00 0.00 0.00 61 1017.6
20260904103503 89 298 4.0 13.0 0.00 0.00 0.00 60 1017.6
20260904103404 89 297 4.0 13.0 0.00 0.00 0.00 60 1017.7
20260904103303 89 298 3.0 13.0 0.00 0.00 0.00 60 1017.6
20260904103203 89 295 3.0 13.0 0.00 0.00 0.00 60 1017.7
20260904103103 89 296 3.0 10.0 0.00 0.00 0.00 60 1017.8
20260904103003 89 295 3.0 10.0 0.00 0.00 0.00 60 1017.8
20260904102903 89 297 3.0 8.0 0.00 0.00 0.00 60 1017.7
20260904102803 89 297 4.0 9.0 0.00 0.00 0.00 60 1017.6
20260904102703 88 296 4.0 10.0 0.00 0.00 0.00 60 1017.6
20260904102603 88 296 4.0 10.0 0.00 0.00 0.00 60 1017.6
20260904102503 88 299 4.0 13.0 0.00 0.00 0.00 60 1017.6
20260904102403 88 299 4.0 13.0 0.00 0.00 0.00 60 1017.7
20260904102306 88 299 4.0 13.0 0.00 0.00 0.00 60 1017.6
20260904102203 88 300 4.0 13.0 0.00 0.00 0.00 60 1017.6
20260904102103 88 302 4.0 13.0 0.00 0.00 0.00 60 1017.6
20260904102003 88 302 4.0 13.0 0.00 0.00 0.00 60 1017.7
20260904101903 88 302 4.0 13.0 0.00 0.00 0.00 60 1017.8
20260904101803 88 301 4.0 13.0 0.00 0.00 0.00 60 1017.7
20260904101703 88 300 4.0 13.0 0.00 0.00 0.00 60 1017.7
20260904101603 88 301 4.0 13.0 0.00 0.00 0.00 60 1017.8
20260904101503 88 298 3.0 8.0 0.00 0.00 0.00 60 1017.7
20260904101403 88 297 3.0 8.0 0.00 0.00 0.00 60 1017.7
20260904101303 88 299 3.0 8.0 0.00 0.00 0.00 61 1017.8
20260904101203 88 298 3.0 8.0 0.00 0.00 0.00 61 1017.8
20260904101103 88 294 3.0 8.0 0.00 0.00 0.00 61 1017.8
20260904101003 88 293 3.0 8.0 0.00 0.00 0.00 60 1017.8
20260904100903 88 291 3.0 8.0 0.00 0.00 0.00 61 1017.8
20260904100803 88 295 3.0 8.0 0.00 0.00 0.00 61 1017.8
20260904100703 88 299 3.0 13.0 0.00 0.00 0.00 60 1017.7
20260904100603 88 299 4.0 13.0 0.00 0.00 0.00 60 1017.7
20260904100503 88 299 4.0 13.0 0.00 0.00 0.00 60 1017.8
20260904100403 88 300 5.0 13.0 0.00 0.00 0.00 60 1017.9
20260904100303 88 300 5.0 13.0 0.00 0.00 0.00 60 1017.9
20260904100203 88 299 5.0 13.0 0.00 0.00 0.00 60 1017.9
20260904100103 88 300 5.0 13.0 0.00 0.00 0.00 60 1017.9
20260904100003 88 300 5.0 13.0 0.00 0.00 0.00 59 1017.9
20260904095903 88 301 5.0 13.0 0.00 0.00 0.00 60 1017.9
20260904095803 88 300 5.0 13.0 0.00 0.00 0.00 60 1017.9
20260904095703 88 299 5.0 11.0 0.00 0.00 0.00 60 1017.9
20260904095603 88 299 4.0 10.0 0.00 0.00 0.00 60 1017.9
20260904095503 88 299 4.0 10.0 0.00 0.00 0.00 60 1017.7
20260904095403 88 298 4.0 11.0 0.00 0.00 0.00 59 1017.8
20260904095306 88 299 4.0 11.0 0.00 0.00 0.00 59 1017.8
20260904095203 88 299 4.0 12.0 0.00 0.00 0.00 59 1017.7
20260904095103 88 298 4.0 12.0 0.00 0.00 0.00 59 1017.7
20260904095003 88 296 4.0 12.0 0.00 0.00 0.00 58 1017.6
20260904094903 88 296 4.0 12.0 0.00 0.00 0.00 58 1017.7
20260904094803 88 295 5.0 13.0 0.00 0.00 0.00 58 1017.7
20260904094703 88 296 5.0 13.0 0.00 0.00 0.00 58 1017.7
20260904094603 88 297 5.0 13.0 0.00 0.00 0.00 59 1017.7
20260904094503 88 299 5.0 13.0 0.00 0.00 0.00 59 1017.6
20260904094403 88 298 5.0 13.0 0.00 0.00 0.00 60 1017.7
20260904094303 88 297 5.0 13.0 0.00 0.00 0.00 60 1017.8
20260904094203 88 297 5.0 13.0 0.00 0.00 0.00 60 1017.8
20260904094103 88 297 5.0 13.0 0.00 0.00 0.00 59 1017.8
20260904094003 88 300 4.0 13.0 0.00 0.00 0.00 59 1017.9
20260904093903 88 300 5.0 13.0 0.00 0.00 0.00 59 1017.9
20260904093803 88 301 4.0 11.0 0.00 0.00 0.00 60 1018.0
20260904093703 88 301 4.0 11.0 0.00 0.00 0.00 59 1017.9
20260904093603 88 301 4.0 11.0 0.00 0.00 0.00 60 1017.9
20260904093503 88 297 4.0 11.0 0.00 0.00 0.00 60 1017.9
20260904093403 88 299 4.0 11.0 0.00 0.00 0.00 60 1017.8
20260904093303 88 300 4.0 11.0 0.00 0.00 0.00 60 1017.8
20260904093203 88 301 4.0 11.0 0.00 0.00 0.00 60 1017.7
20260904093103 88 301 4.0 11.0 0.00 0.00 0.00 59 1017.6
20260904093003 88 299 4.0 11.0 0.00 0.00 0.00 59 1017.7
20260904092903 88 301 4.0 11.0 0.00 0.00 0.00 59 1017.7
20260904092803 88 304 4.0 11.0 0.00 0.00 0.00 59 1017.7
20260904092703 88 303 4.0 10.0 0.00 0.00 0.00 59 1017.6
20260904092603 88 303 4.0 10.0 0.00 0.00 0.00 59 1017.6
20260904092504 88 302 4.0 10.0 0.00 0.00 0.00 59 1017.7
20260904092404 88 300 4.0 10.0 0.00 0.00 0.00 59 1017.7
20260904092306 88 301 4.0 11.0 0.00 0.00 0.00 59 1017.7
20260904092204 88 300 4.0 11.0 0.00 0.00 0.00 59 1017.7
20260904092105 88 300 4.0 11.0 0.00 0.00 0.00 58 1017.7
20260904092004 88 301 4.0 11.0 0.00 0.00 0.00 58 1017.7
20260904091904 88 299 4.0 11.0 0.00 0.00 0.00 58 1017.5
20260904091804 88 297 4.0 11.0 0.00 0.00 0.00 58 1017.6
20260904091704 88 298 4.0 11.0 0.00 0.00 0.00 58 1017.6
20260904091604 88 298 4.0 11.0 0.00 0.00 0.00 58 1017.6
20260904091504 88 297 4.0 11.0 0.00 0.00 0.00 57 1017.6
20260904091404 88 296 4.0 11.0 0.00 0.00 0.00 58 1017.6
20260904091304 88 295 4.0 11.0 0.00 0.00 0.00 58 1017.7
20260904091204 88 295 4.0 11.0 0.00 0.00 0.00 59 1017.6
20260904091104 88 295 4.0 10.0 0.00 0.00 0.00 60 1017.7
20260904091004 88 293 4.0 9.0 0.00 0.00 0.00 60 1017.7
20260904090904 88 293 4.0 9.0 0.00 0.00 0.00 59 1017.8
20260904090804 88 295 4.0 9.0 0.00 0.00 0.00 59 1017.7
20260904090704 88 295 4.0 9.0 0.00 0.00 0.00 59 1017.7
20260904090604 88 296 4.0 12.0 0.00 0.00 0.00 59 1017.7
20260904090504 88 297 4.0 12.0 0.00 0.00 0.00 60 1017.7
20260904090404 87 298 5.0 12.0 0.00 0.00 0.00 60 1017.8
20260904090304 87 299 4.0 12.0 0.00 0.00 0.00 61 1017.8
20260904090204 87 298 4.0 12.0 0.00 0.00 0.00 61 1017.8
20260904090104 87 299 5.0 12.0 0.00 0.00 0.00 60 1017.9
20260904090004 87 299 5.0 12.0 0.00 0.00 0.00 60 1017.9
20260904085904 87 299 5.0 12.0 0.00 0.00 0.00 60 1017.9
20260904085804 87 298 5.0 12.0 0.00 0.00 0.00 60 1017.9
20260904085704 88 297 5.0 12.0 0.00 0.00 0.00 60 1017.8
20260904085604 88 296 4.0 12.0 0.00 0.00 0.00 60 1017.8
20260904085504 88 297 4.0 12.0 0.00 0.00 0.00 61 1017.9
20260904085404 88 296 4.0 12.0 0.00 0.00 0.00 60 1017.8
20260904085306 88 296 4.0 12.0 0.00 0.00 0.00 60 1017.8
20260904085204 88 294 4.0 12.0 0.00 0.00 0.00 60 1017.9
20260904085104 88 294 4.0 12.0 0.00 0.00 0.00 60 1017.9
20260904085004 88 295 3.0 12.0 0.00 0.00 0.00 60 1018.0
20260904084904 88 295 3.0 12.0 0.00 0.00 0.00 60 1017.9
20260904084804 88 295 3.0 12.0 0.00 0.00 0.00 60 1017.9
20260904084704 88 294 4.0 12.0 0.00 0.00 0.00 60 1018.0
20260904084604 87 295 4.0 12.0 0.00 0.00 0.00 60 1017.9
20260904084504 88 296 4.0 12.0 0.00 0.00 0.00 60 1017.9
20260904084404 87 295 5.0 12.0 0.00 0.00 0.00 59 1018.0
20260904084304 87 296 4.0 12.0 0.00 0.00 0.00 59 1017.9
20260904084204 87 297 4.0 9.0 0.00 0.00 0.00 59 1018.0
20260904084104 87 297 4.0 9.0 0.00 0.00 0.00 59 1018.0
20260904084004 87 298 5.0 10.0 0.00 0.00 0.00 59 1018.0
20260904083904 87 299 4.0 10.0 0.00 0.00 0.00 59 1018.0
20260904083804 87 300 4.0 10.0 0.00 0.00 0.00 60 1018.0
20260904083703 87 301 4.0 10.0 0.00 0.00 0.00 60 1017.8
20260904083603 87 301 4.0 10.0 0.00 0.00 0.00 60 1017.7
20260904083503 87 302 4.0 10.0 0.00 0.00 0.00 60 1017.8
20260904083403 87 303 4.0 10.0 0.00 0.00 0.00 60 1017.7
20260904083304 87 303 4.0 10.0 0.00 0.00 0.00 60 1017.7
20260904083204 87 303 4.0 10.0 0.00 0.00 0.00 61 1017.7
20260904083103 87 303 4.0 10.0 0.00 0.00 0.00 61 1017.8
20260904083004 87 302 4.0 9.0 0.00 0.00 0.00 61 1017.8
20260904082903 87 301 4.0 9.0 0.00 0.00 0.00 61 1017.7
20260904082803 87 302 3.0 9.0 0.00 0.00 0.00 61 1017.8
20260904082703 87 304 3.0 9.0 0.00 0.00 0.00 61 1017.7
20260904082603 87 304 3.0 9.0 0.00 0.00 0.00 62 1017.8
20260904082503 87 301 3.0 8.0 0.00 0.00 0.00 62 1017.8
20260904082403 87 301 3.0 11.0 0.00 0.00 0.00 62 1017.8
20260904082305 87 301 3.0 11.0 0.00 0.00 0.00 62 1017.8
20260904082203 87 299 3.0 11.0 0.00 0.00 0.00 62 1017.9
20260904082103 87 297 3.0 11.0 0.00 0.00 0.00 62 1017.8
20260904082003 87 297 4.0 11.0 0.00 0.00 0.00 62 1017.8
20260904081904 87 298 4.0 11.0 0.00 0.00 0.00 62 1017.7
20260904081804 87 298 4.0 11.0 0.00 0.00 0.00 62 1017.7
20260904081703 87 296 4.0 11.0 0.00 0.00 0.00 62 1017.8
20260904081603 87 297 4.0 11.0 0.00 0.00 0.00 63 1017.7
20260904081503 87 298 4.0 11.0 0.00 0.00 0.00 63 1017.6
20260904081403 87 300 4.0 12.0 0.00 0.00 0.00 62 1017.6
20260904081303 87 299 4.0 12.0 0.00 0.00 0.00 62 1017.6
20260904081203 87 302 4.0 12.0 0.00 0.00 0.00 63 1017.6
20260904081103 87 304 4.0 12.0 0.00 0.00 0.00 62 1017.6
20260904081003 87 303 4.0 12.0 0.00 0.00 0.00 62 1017.6
20260904080903 87 304 4.0 12.0 0.00 0.00 0.00 62 1017.5
20260904080803 87 302 4.0 13.0 0.00 0.00 0.00 62 1017.5
20260904080703 87 303 5.0 13.0 0.00 0.00 0.00 62 1017.6
20260904080603 87 303 5.0 13.0 0.00 0.00 0.00 62 1017.6
20260904080503 87 303 5.0 13.0 0.00 0.00 0.00 62 1017.5
20260904080403 87 300 4.0 13.0 0.00 0.00 0.00 62 1017.5
20260904080303 87 301 4.0 13.0 0.00 0.00 0.00 63 1017.6
20260904080203 87 300 4.0 13.0 0.00 0.00 0.00 63 1017.5
20260904080003 87 300 5.0 13.0 0.00 0.00 0.00 62 1017.6
20260904075903 87 298 5.0 13.0 0.00 0.00 0.00 62 1017.6
20260904075803 87 298 4.0 11.0 0.00 0.00 0.00 62 1017.6
20260904075703 87 298 4.0 11.0 0.00 0.00 0.00 62 1017.6
20260904075603 87 298 4.0 11.0 0.00 0.00 0.00 62 1017.6
20260904075503 87 297 4.0 11.0 0.00 0.00 0.00 62 1017.6
20260904075403 87 298 5.0 11.0 0.00 0.00 0.00 62 1017.6
20260904075306 87 297 5.0 11.0 0.00 0.00 0.00 62 1017.6
20260904075203 87 299 5.0 11.0 0.00 0.00 0.00 62 1017.5
20260904075103 87 298 5.0 11.0 0.00 0.00 0.00 62 1017.5
20260904075003 87 300 4.0 9.0 0.00 0.00 0.00 63 1017.5
20260904074903 87 301 4.0 9.0 0.00 0.00 0.00 63 1017.5
20260904074803 87 300 4.0 9.0 0.00 0.00 0.00 63 1017.5
20260904074703 87 301 4.0 10.0 0.00 0.00 0.00 63 1017.5
20260904074603 87 302 4.0 10.0 0.00 0.00 0.00 63 1017.5
20260904074503 87 303 3.0 10.0 0.00 0.00 0.00 63 1017.4
20260904074403 87 302 3.0 10.0 0.00 0.00 0.00 63 1017.5
20260904074303 87 300 3.0 10.0 0.00 0.00 0.00 63 1017.5
20260904074203 87 298 3.0 10.0 0.00 0.00 0.00 63 1017.5
20260904074103 87 298 3.0 10.0 0.00 0.00 0.00 63 1017.4
20260904074003 87 297 3.0 10.0 0.00 0.00 0.00 63 1017.4
20260904073903 87 296 3.0 12.0 0.00 0.00 0.00 63 1017.3
20260904073803 87 297 3.0 12.0 0.00 0.00 0.00 63 1017.3
20260904073703 87 295 3.0 12.0 0.00 0.00 0.00 63 1017.3
20260904073603 87 294 3.0 12.0 0.00 0.00 0.00 63 1017.2
20260904073503 87 294 3.0 12.0 0.00 0.00 0.00 63 1017.3
20260904073403 87 295 4.0 12.0 0.00 0.00 0.00 63 1017.3
20260904073303 87 296 4.0 12.0 0.00 0.00 0.00 63 1017.3
20260904073203 87 300 4.0 12.0 0.00 0.00 0.00 63 1017.2
20260904073103 87 300 4.0 12.0 0.00 0.00 0.00 63 1017.2
20260904073003 87 301 4.0 12.0 0.00 0.00 0.00 63 1017.2
20260904072903 87 302 4.0 11.0 0.00 0.00 0.00 63 1017.2
20260904072803 87 304 4.0 11.0 0.00 0.00 0.00 63 1017.2
20260904072703 87 305 4.0 11.0 0.00 0.00 0.00 63 1017.2
20260904072603 87 304 4.0 11.0 0.00 0.00 0.00 63 1017.1
20260904072503 87 304 4.0 11.0 0.00 0.00 0.00 63 1017.1
20260904072403 87 303 4.0 11.0 0.00 0.00 0.00 63 1017.1
20260904072305 87 303 4.0 11.0 0.00 0.00 0.00 63 1017.1
20260904072203 87 299 4.0 10.0 0.00 0.00 0.00 63 1017.1
20260904072103 87 298 4.0 9.0 0.00 0.00 0.00 63 1017.1
20260904072003 87 296 4.0 10.0 0.00 0.00 0.00 63 1017.1
20260904071903 87 295 4.0 10.0 0.00 0.00 0.00 64 1017.0
20260904071803 87 292 3.0 10.0 0.00 0.00 0.00 64 1016.9
20260904071703 87 292 3.0 10.0 0.00 0.00 0.00 64 1017.0
20260904071603 87 292 3.0 12.0 0.00 0.00 0.00 64 1016.9
20260904071503 87 295 4.0 12.0 0.00 0.00 0.00 64 1016.9
20260904071403 87 295 4.0 12.0 0.00 0.00 0.00 64 1017.0
20260904071303 87 295 4.0 12.0 0.00 0.00 0.00 64 1017.0
20260904071203 87 296 4.0 12.0 0.00 0.00 0.00 64 1017.0
20260904071103 87 297 4.0 12.0 0.00 0.00 0.00 64 1017.0
20260904071003 87 298 4.0 12.0 0.00 0.00 0.00 64 1017.0
20260904070903 87 298 4.0 12.0 0.00 0.00 0.00 64 1017.1
20260904070803 87 298 4.0 12.0 0.00 0.00 0.00 64 1017.1
20260904070703 87 298 4.0 12.0 0.00 0.00 0.00 64 1017.1
20260904070603 87 298 4.0 12.0 0.00 0.00 0.00 64 1017.1
20260904070503 87 296 4.0 11.0 0.00 0.00 0.00 64 1017.1
20260904070403 87 295 3.0 11.0 0.00 0.00 0.00 64 1017.1
20260904070303 87 297 3.0 11.0 0.00 0.00 0.00 64 1017.2
20260904070203 87 295 3.0 7.0 0.00 0.00 0.00 64 1017.1
20260904070003 87 294 3.0 7.0 0.00 0.00 0.00 64 1017.0
20260904065903 87 295 3.0 7.0 0.00 0.00 0.00 64 1017.0
20260904065804 87 295 3.0 7.0 0.00 0.00 0.00 65 1017.1
20260904065704 87 295 3.0 7.0 0.00 0.00 0.00 65 1017.1
20260904065604 87 296 4.0 10.0 0.00 0.00 0.00 65 1017.1
20260904065504 87 296 3.0 10.0 0.00 0.00 0.00 65 1017.1
20260904065404 87 296 4.0 10.0 0.00 0.00 0.00 65 1017.0
20260904065306 87 295 4.0 10.0 0.00 0.00 0.00 65 1017.0
20260904065204 86 294 4.0 10.0 0.00 0.00 0.00 65 1016.9
20260904065104 87 294 4.0 10.0 0.00 0.00 0.00 65 1017.1
20260904065004 86 295 4.0 11.0 0.00 0.00 0.00 65 1017.0
20260904064904 86 296 4.0 11.0 0.00 0.00 0.00 65 1017.0
20260904064804 86 295 4.0 11.0 0.00 0.00 0.00 65 1017.1
20260904064704 86 295 4.0 11.0 0.00 0.00 0.00 65 1017.1
20260904064604 86 294 4.0 11.0 0.00 0.00 0.00 66 1017.0
20260904064504 86 294 3.0 11.0 0.00 0.00 0.00 66 1016.9
20260904064404 86 295 3.0 11.0 0.00 0.00 0.00 66 1017.0
20260904064304 86 296 3.0 11.0 0.00 0.00 0.00 66 1017.0
20260904064204 86 298 3.0 11.0 0.00 0.00 0.00 66 1016.9
20260904064104 86 298 3.0 11.0 0.00 0.00 0.00 67 1016.9
20260904064004 86 298 3.0 9.0 0.00 0.00 0.00 67 1017.0
20260904063904 86 296 3.0 9.0 0.00 0.00 0.00 67 1017.1
20260904063804 86 296 4.0 9.0 0.00 0.00 0.00 67 1017.1
20260904063704 86 297 4.0 9.0 0.00 0.00 0.00 67 1017.1
20260904063604 86 297 4.0 9.0 0.00 0.00 0.00 67 1017.1
20260904063504 86 297 4.0 9.0 0.00 0.00 0.00 67 1017.2
20260904063404 86 296 4.0 9.0 0.00 0.00 0.00 68 1017.2
20260904063304 85 296 3.0 9.0 0.00 0.00 0.00 67 1017.1
20260904063204 85 298 3.0 10.0 0.00 0.00 0.00 67 1017.2
20260904063104 85 297 3.0 10.0 0.00 0.00 0.00 68 1017.2
20260904063004 85 298 3.0 10.0 0.00 0.00 0.00 68 1017.3
20260904062904 85 299 3.0 10.0 0.00 0.00 0.00 68 1017.2
20260904062804 85 300 3.0 10.0 0.00 0.00 0.00 69 1017.1
20260904062704 85 300 2.0 10.0 0.00 0.00 0.00 69 1017.2
20260904062604 84 302 2.0 10.0 0.00 0.00 0.00 69 1017.2
20260904062504 84 301 2.0 10.0 0.00 0.00 0.00 69 1017.2
20260904062404 84 303 2.0 10.0 0.00 0.00 0.00 70 1017.1
20260904062306 84 303 2.0 10.0 0.00 0.00 0.00 70 1017.2
20260904062204 84 302 2.0 10.0 0.00 0.00 0.00 70 1017.2
20260904062104 84 302 2.0 10.0 0.00 0.00 0.00 70 1017.2
20260904062004 84 302 2.0 10.0 0.00 0.00 0.00 71 1017.2
20260904061904 83 300 2.0 10.0 0.00 0.00 0.00 71 1017.3
20260904061803 83 300 3.0 10.0 0.00 0.00 0.00 71 1017.1
20260904061704 83 298 3.0 10.0 0.00 0.00 0.00 71 1017.2
20260904061603 83 297 3.0 10.0 0.00 0.00 0.00 71 1017.1
20260904061504 83 297 3.0 10.0 0.00 0.00 0.00 71 1017.0
20260904061404 83 297 4.0 10.0 0.00 0.00 0.00 71 1017.0
20260904061303 83 297 4.0 10.0 0.00 0.00 0.00 71 1017.1
20260904061203 83 296 4.0 8.0 0.00 0.00 0.00 72 1017.0
20260904061103 83 296 4.0 8.0 0.00 0.00 0.00 72 1016.9
20260904061003 82 296 4.0 8.0 0.00 0.00 0.00 72 1016.9
20260904060903 82 296 4.0 8.0 0.00 0.00 0.00 72 1016.9
20260904060803 82 295 3.0 8.0 0.00 0.00 0.00 72 1017.0
20260904060703 82 296 3.0 8.0 0.00 0.00 0.00 73 1017.0
20260904060604 82 298 3.0 8.0 0.00 0.00 0.00 73 1017.1
20260904060503 82 300 3.0 8.0 0.00 0.00 0.00 73 1017.0
20260904060403 82 300 3.0 8.0 0.00 0.00 0.00 73 1017.0
20260904060303 81 300 3.0 8.0 0.00 0.00 0.00 73 1017.0
20260904060203 81 299 3.0 8.0 0.00 0.00 0.00 73 1017.0
20260904060103 81 298 3.0 8.0 0.00 0.00 0.00 73 1017.0
20260904060003 81 297 3.0 8.0 0.00 0.00 0.00 73 1016.9
20260904055903 81 297 3.0 8.0 0.00 0.00 0.00 73 1016.9
20260904055803 81 297 3.0 8.0 0.00 0.00 0.00 73 1016.9
20260904055703 81 298 3.0 8.0 0.00 0.00 0.00 73 1016.9
20260904055603 81 297 3.0 8.0 0.00 0.00 0.00 73 1016.9
20260904055503 81 296 2.0 7.0 0.00 0.00 0.00 73 1016.9
20260904055403 81 296 3.0 7.0 0.00 0.00 0.00 73 1016.9
20260904055306 81 296 3.0 7.0 0.00 0.00 0.00 73 1016.9
20260904055203 81 297 3.0 11.0 0.00 0.00 0.00 73 1016.9
20260904055103 81 297 3.0 11.0 0.00 0.00 0.00 73 1016.9
20260904055003 81 298 3.0 11.0 0.00 0.00 0.00 73 1016.9
20260904054903 81 298 3.0 11.0 0.00 0.00 0.00 73 1016.9
20260904054803 81 298 3.0 11.0 0.00 0.00 0.00 73 1017.0
20260904054703 81 297 2.0 11.0 0.00 0.00 0.00 73 1016.9
20260904054603 81 297 2.0 11.0 0.00 0.00 0.00 73 1016.9
20260904054503 81 297 2.0 11.0 0.00 0.00 0.00 73 1017.0
20260904054403 81 298 2.0 11.0 0.00 0.00 0.00 73 1017.0
20260904054303 81 300 2.0 11.0 0.00 0.00 0.00 73 1017.0
20260904054203 81 298 1.0 5.0 0.00 0.00 0.00 74 1017.0
20260904054103 81 299 1.0 5.0 0.00 0.00 0.00 73 1017.0
20260904054003 81 298 1.0 6.0 0.00 0.00 0.00 74 1017.0
20260904053903 81 297 2.0 6.0 0.00 0.00 0.00 73 1017.0
20260904053803 81 298 2.0 6.0 0.00 0.00 0.00 74 1017.0
20260904053703 81 297 2.0 6.0 0.00 0.00 0.00 74 1017.2
20260904053603 81 295 2.0 6.0 0.00 0.00 0.00 74 1016.9
20260904053503 81 294 2.0 6.0 0.00 0.00 0.00 74 1017.0
20260904053403 81 292 2.0 6.0 0.00 0.00 0.00 74 1017.2
20260904053303 81 291 2.0 6.0 0.00 0.00 0.00 74 1017.0
20260904053203 81 291 2.0 6.0 0.00 0.00 0.00 74 1017.2
20260904053103 81 291 2.0 6.0 0.00 0.00 0.00 74 1017.2
20260904053003 81 291 2.0 6.0 0.00 0.00 0.00 74 1017.1
20260904052903 81 291 2.0 6.0 0.00 0.00 0.00 74 1017.0
20260904052803 80 290 2.0 6.0 0.00 0.00 0.00 74 1017.2
20260904052703 81 290 2.0 6.0 0.00 0.00 0.00 74 1017.1
20260904052603 80 294 2.0 6.0 0.00 0.00 0.00 74 1017.2
20260904052503 80 294 2.0 6.0 0.00 0.00 0.00 74 1017.2
20260904052403 80 296 2.0 7.0 0.00 0.00 0.00 74 1017.2
20260904052306 80 299 2.0 7.0 0.00 0.00 0.00 74 1017.2
20260904052203 80 300 2.0 7.0 0.00 0.00 0.00 74 1017.1
20260904052103 80 300 2.0 7.0 0.00 0.00 0.00 74 1017.1
20260904052003 80 302 2.0 7.0 0.00 0.00 0.00 74 1017.1
20260904051903 80 303 2.0 7.0 0.00 0.00 0.00 74 1017.0
20260904051803 80 303 3.0 7.0 0.00 0.00 0.00 74 1017.1
20260904051703 80 303 3.0 7.0 0.00 0.00 0.00 74 1017.0
20260904051603 80 301 3.0 7.0 0.00 0.00 0.00 74 1017.0
20260904051503 80 300 3.0 7.0 0.00 0.00 0.00 74 1017.0
20260904051403 80 299 3.0 7.0 0.00 0.00 0.00 74 1017.0
20260904051303 80 297 3.0 7.0 0.00 0.00 0.00 74 1017.0
20260904051203 80 296 3.0 7.0 0.00 0.00 0.00 74 1017.0
20260904051103 80 296 2.0 7.0 0.00 0.00 0.00 74 1017.0
20260904051003 80 296 2.0 7.0 0.00 0.00 0.00 74 1017.0
20260904050903 80 294 2.0 7.0 0.00 0.00 0.00 74 1016.9
20260904050803 80 293 2.0 7.0 0.00 0.00 0.00 74 1016.9
20260904050703 80 293 2.0 7.0 0.00 0.00 0.00 74 1016.9
20260904050603 80 292 2.0 7.0 0.00 0.00 0.00 74 1016.9
20260904050503 80 292 2.0 7.0 0.00 0.00 0.00 74 1016.8
20260904050403 80 292 2.0 7.0 0.00 0.00 0.00 74 1016.8
20260904050303 80 292 2.0 7.0 0.00 0.00 0.00 74 1016.7
20260904050203 80 291 2.0 7.0 0.00 0.00 0.00 75 1016.8
20260904050003 80 291 2.0 7.0 0.00 0.00 0.00 75 1016.7
20260904045903 80 292 3.0 8.0 0.00 0.00 0.00 75 1016.7
20260904045803 80 293 3.0 8.0 0.00 0.00 0.00 75 1016.7
20260904045703 80 292 3.0 8.0 0.00 0.00 0.00 75 1016.6
20260904045603 80 293 3.0 8.0 0.00 0.00 0.00 75 1016.5
20260904045503 80 293 3.0 8.0 0.00 0.00 0.00 75 1016.5
20260904045403 80 293 2.0 8.0 0.00 0.00 0.00 75 1016.6
20260904045306 80 293 2.0 8.0 0.00 0.00 0.00 74 1016.5
20260904045203 80 293 2.0 8.0 0.00 0.00 0.00 74 1016.6
20260904045103 80 295 2.0 8.0 0.00 0.00 0.00 75 1016.6
20260904045003 80 295 2.0 8.0 0.00 0.00 0.00 75 1016.6
20260904044904 80 296 1.0 7.0 0.00 0.00 0.00 74 1016.6
20260904044804 80 301 1.0 7.0 0.00 0.00 0.00 74 1016.5
20260904044704 80 300 1.0 7.0 0.00 0.00 0.00 75 1016.5
20260904044604 80 300 1.0 6.0 0.00 0.00 0.00 74 1016.5
20260904044504 80 302 1.0 6.0 0.00 0.00 0.00 75 1016.5
20260904044404 80 301 2.0 6.0 0.00 0.00 0.00 75 1016.5
20260904044304 80 301 2.0 6.0 0.00 0.00 0.00 74 1016.5
20260904044204 80 303 1.0 6.0 0.00 0.00 0.00 75 1016.5
20260904044104 80 301 1.0 6.0 0.00 0.00 0.00 74 1016.5
20260904044004 80 302 1.0 6.0 0.00 0.00 0.00 74 1016.6
20260904043904 80 302 1.0 6.0 0.00 0.00 0.00 75 1016.5
20260904043804 80 297 1.0 6.0 0.00 0.00 0.00 74 1016.5
20260904043704 80 297 1.0 6.0 0.00 0.00 0.00 74 1016.5
20260904043604 80 299 1.0 6.0 0.00 0.00 0.00 74 1016.5
20260904043504 80 299 1.0 7.0 0.00 0.00 0.00 74 1016.5
20260904043404 80 301 1.0 7.0 0.00 0.00 0.00 74 1016.5
20260904043304 80 297 1.0 8.0 0.00 0.00 0.00 74 1016.4
20260904043204 80 296 1.0 8.0 0.00 0.00 0.00 75 1016.4
20260904043104 80 296 2.0 8.0 0.00 0.00 0.00 75 1016.4
20260904043004 80 296 2.0 9.0 0.00 0.00 0.00 75 1016.4
20260904042904 80 296 2.0 9.0 0.00 0.00 0.00 75 1016.5
20260904042804 80 296 3.0 9.0 0.00 0.00 0.00 75 1016.5
20260904042704 80 296 3.0 9.0 0.00 0.00 0.00 75 1016.5
20260904042604 80 297 3.0 9.0 0.00 0.00 0.00 75 1016.6
20260904042504 80 296 2.0 9.0 0.00 0.00 0.00 74 1016.6
20260904042404 80 300 2.0 9.0 0.00 0.00 0.00 75 1016.5
20260904042306 80 303 2.0 9.0 0.00 0.00 0.00 75 1016.6
20260904042204 80 304 2.0 9.0 0.00 0.00 0.00 75 1016.7
20260904042104 80 307 2.0 9.0 0.00 0.00 0.00 75 1016.6
20260904042004 80 310 2.0 7.0 0.00 0.00 0.00 75 1016.6
20260904041904 80 311 1.0 7.0 0.00 0.00 0.00 75 1016.6
20260904041804 80 312 1.0 7.0 0.00 0.00 0.00 75 1016.6
20260904041704 80 308 2.0 7.0 0.00 0.00 0.00 75 1016.6
20260904041604 80 305 2.0 7.0 0.00 0.00 0.00 75 1016.6
20260904041504 80 303 2.0 7.0 0.00 0.00 0.00 75 1016.7
20260904041404 80 298 2.0 6.0 0.00 0.00 0.00 75 1016.7
20260904041304 80 295 2.0 6.0 0.00 0.00 0.00 75 1016.6
20260904041204 80 296 2.0 6.0 0.00 0.00 0.00 75 1016.5
20260904041104 80 295 2.0 6.0 0.00 0.00 0.00 75 1016.6
20260904041003 80 295 2.0 6.0 0.00 0.00 0.00 75 1016.5
20260904040904 80 296 2.0 6.0 0.00 0.00 0.00 75 1016.5
20260904040803 80 296 2.0 8.0 0.00 0.00 0.00 75 1016.5
20260904040703 80 296 2.0 8.0 0.00 0.00 0.00 75 1016.5
20260904040604 80 295 3.0 9.0 0.00 0.00 0.00 75 1016.5
20260904040503 80 294 3.0 9.0 0.00 0.00 0.00 74 1016.5
20260904040403 80 295 3.0 9.0 0.00 0.00 0.00 74 1016.5
20260904040303 80 296 3.0 9.0 0.00 0.00 0.00 74 1016.5
20260904040203 80 295 3.0 9.0 0.00 0.00 0.00 74 1016.4
20260904040103 80 295 2.0 9.0 0.00 0.00 0.00 74 1016.5
20260904040004 80 295 2.0 9.0 0.00 0.00 0.00 74 1016.5
20260904035903 80 294 2.0 9.0 0.00 0.00 0.00 74 1016.5
20260904035803 80 294 2.0 9.0 0.00 0.00 0.00 74 1016.5
20260904035703 80 297 2.0 9.0 0.00 0.00 0.00 74 1016.5
20260904035603 80 299 2.0 8.0 0.00 0.00 0.00 74 1016.5
20260904035503 80 301 2.0 8.0 0.00 0.00 0.00 74 1016.5
20260904035404 80 301 1.0 7.0 0.00 0.00 0.00 74 1016.5
20260904035306 80 302 1.0 7.0 0.00 0.00 0.00 74 1016.4
20260904035203 80 302 1.0 7.0 0.00 0.00 0.00 74 1016.5
20260904035103 80 304 1.0 7.0 0.00 0.00 0.00 74 1016.5
20260904035003 80 304 2.0 7.0 0.00 0.00 0.00 74 1016.5
20260904034903 80 304 1.0 7.0 0.00 0.00 0.00 74 1016.5
20260904034803 80 304 1.0 7.0 0.00 0.00 0.00 74 1016.6
20260904034703 80 300 1.0 7.0 0.00 0.00 0.00 74 1016.5
20260904034604 80 299 1.0 7.0 0.00 0.00 0.00 74 1016.4
20260904034503 80 299 1.0 7.0 0.00 0.00 0.00 74 1016.5
20260904034403 80 300 1.0 7.0 0.00 0.00 0.00 74 1016.5
20260904034303 80 298 1.0 7.0 0.00 0.00 0.00 74 1016.5
20260904034203 80 298 2.0 7.0 0.00 0.00 0.00 74 1016.5
20260904034103 80 296 2.0 7.0 0.00 0.00 0.00 74 1016.5
20260904034003 80 295 2.0 7.0 0.00 0.00 0.00 74 1016.5
20260904033903 80 295 2.0 10.0 0.00 0.00 0.00 74 1016.6
20260904033803 80 295 2.0 10.0 0.00 0.00 0.00 74 1016.5
20260904033703 80 296 2.0 10.0 0.00 0.00 0.00 74 1016.5
20260904033603 80 297 2.0 10.0 0.00 0.00 0.00 74 1016.4
20260904033503 80 296 2.0 10.0 0.00 0.00 0.00 74 1016.5
20260904033403 80 296 2.0 10.0 0.00 0.00 0.00 74 1016.5
20260904033303 80 297 2.0 10.0 0.00 0.00 0.00 74 1016.5
20260904033203 80 296 2.0 10.0 0.00 0.00 0.00 74 1016.5
20260904033103 80 297 2.0 10.0 0.00 0.00 0.00 74 1016.5
20260904033003 80 298 1.0 10.0 0.00 0.00 0.00 74 1016.5
20260904032903 80 299 1.0 6.0 0.00 0.00 0.00 74 1016.5
20260904032803 80 299 1.0 6.0 0.00 0.00 0.00 74 1016.5
20260904032703 80 300 1.0 6.0 0.00 0.00 0.00 74 1016.5
20260904032603 80 300 1.0 6.0 0.00 0.00 0.00 74 1016.5
20260904032503 80 301 1.0 6.0 0.00 0.00 0.00 74 1016.4
20260904032403 80 299 1.0 6.0 0.00 0.00 0.00 74 1016.5
20260904032305 80 299 1.0 6.0 0.00 0.00 0.00 74 1016.5
20260904032203 80 301 1.0 6.0 0.00 0.00 0.00 74 1016.4
20260904032103 80 301 2.0 6.0 0.00 0.00 0.00 74 1016.5
20260904032003 80 301 1.0 6.0 0.00 0.00 0.00 74 1016.4
20260904031903 80 302 1.0 6.0 0.00 0.00 0.00 74 1016.4
20260904031803 80 302 1.0 6.0 0.00 0.00 0.00 74 1016.5
20260904031703 80 301 2.0 7.0 0.00 0.00 0.00 74 1016.5
20260904031603 80 299 2.0 7.0 0.00 0.00 0.00 74 1016.5
20260904031503 80 298 2.0 7.0 0.00 0.00 0.00 74 1016.4
20260904031403 80 298 2.0 7.0 0.00 0.00 0.00 74 1016.4
20260904031303 80 298 2.0 7.0 0.00 0.00 0.00 74 1016.5
20260904031203 80 297 2.0 7.0 0.00 0.00 0.00 74 1016.4
20260904031103 80 298 2.0 7.0 0.00 0.00 0.00 73 1016.5
20260904031003 80 298 3.0 7.0 0.00 0.00 0.00 74 1016.5
20260904030903 80 298 3.0 7.0 0.00 0.00 0.00 74 1016.5
20260904030803 80 299 3.0 7.0 0.00 0.00 0.00 74 1016.5
20260904030703 80 300 3.0 7.0 0.00 0.00 0.00 74 1016.5
20260904030603 80 301 2.0 7.0 0.00 0.00 0.00 74 1016.6
20260904030503 80 301 2.0 7.0 0.00 0.00 0.00 73 1016.6
20260904030403 80 302 2.0 7.0 0.00 0.00 0.00 73 1016.5
20260904030303 80 302 2.0 7.0 0.00 0.00 0.00 73 1016.6
20260904030203 80 303 2.0 7.0 0.00 0.00 0.00 73 1016.5
20260904030103 81 302 1.0 7.0 0.00 0.00 0.00 73 1016.6
20260904030003 81 302 1.0 7.0 0.00 0.00 0.00 73 1016.6
20260904025903 81 302 1.0 7.0 0.00 0.00 0.00 73 1016.6
20260904025803 81 302 1.0 7.0 0.00 0.00 0.00 73 1016.5
20260904025703 81 299 1.0 7.0 0.00 0.00 0.00 73 1016.6
20260904025603 81 295 1.0 6.0 0.00 0.00 0.00 73 1016.6
20260904025503 81 296 1.0 6.0 0.00 0.00 0.00 73 1016.6
20260904025403 80 298 1.0 6.0 0.00 0.00 0.00 73 1016.6
20260904025306 80 298 1.0 6.0 0.00 0.00 0.00 73 1016.5
20260904025203 80 298 1.0 6.0 0.00 0.00 0.00 73 1016.6
20260904025103 80 299 1.0 6.0 0.00 0.00 0.00 73 1016.5
20260904025003 80 299 1.0 6.0 0.00 0.00 0.00 73 1016.5
20260904024903 80 296 2.0 6.0 0.00 0.00 0.00 73 1016.5
20260904024803 80 295 2.0 6.0 0.00 0.00 0.00 73 1016.5
20260904024703 80 295 2.0 6.0 0.00 0.00 0.00 73 1016.5
20260904024603 81 294 2.0 6.0 0.00 0.00 0.00 73 1016.6
20260904024503 81 294 2.0 6.0 0.00 0.00 0.00 73 1016.5
20260904024403 80 293 2.0 7.0 0.00 0.00 0.00 73 1016.6
20260904024303 81 292 2.0 7.0 0.00 0.00 0.00 73 1016.6
20260904024203 81 291 2.0 7.0 0.00 0.00 0.00 73 1016.5
20260904024103 81 290 2.0 7.0 0.00 0.00 0.00 73 1016.5
20260904024003 81 290 2.0 7.0 0.00 0.00 0.00 73 1016.5
20260904023903 81 290 2.0 7.0 0.00 0.00 0.00 73 1016.5
20260904023803 81 290 2.0 7.0 0.00 0.00 0.00 73 1016.6
20260904023703 81 290 2.0 7.0 0.00 0.00 0.00 73 1016.6
20260904023603 81 291 2.0 7.0 0.00 0.00 0.00 73 1016.6
20260904023504 81 291 2.0 7.0 0.00 0.00 0.00 73 1016.5
20260904023403 81 291 2.0 6.0 0.00 0.00 0.00 73 1016.5
20260904023303 81 291 2.0 6.0 0.00 0.00 0.00 73 1016.4
20260904023203 81 292 2.0 6.0 0.00 0.00 0.00 73 1016.5
20260904023103 81 293 2.0 6.0 0.00 0.00 0.00 73 1016.5
20260904023003 81 294 2.0 7.0 0.00 0.00 0.00 73 1016.5
20260904022903 81 292 2.0 7.0 0.00 0.00 0.00 73 1016.5
20260904022803 81 294 2.0 7.0 0.00 0.00 0.00 73 1016.5
20260904022703 81 294 2.0 7.0 0.00 0.00 0.00 73 1016.4
20260904022605 81 294 2.0 7.0 0.00 0.00 0.00 73 1016.4
20260904022504 81 294 2.0 7.0 0.00 0.00 0.00 73 1016.4
20260904022404 81 293 2.0 7.0 0.00 0.00 0.00 73 1016.4
20260904022306 81 293 2.0 7.0 0.00 0.00 0.00 73 1016.5
20260904022204 81 294 2.0 7.0 0.00 0.00 0.00 73 1016.4
20260904022104 81 294 2.0 7.0 0.00 0.00 0.00 73 1016.5
20260904022004 81 293 2.0 7.0 0.00 0.00 0.00 73 1016.5
20260904021904 81 294 2.0 7.0 0.00 0.00 0.00 73 1016.5
20260904021804 81 293 2.0 6.0 0.00 0.00 0.00 73 1016.5
20260904021704 81 293 2.0 7.0 0.00 0.00 0.00 73 1016.5
20260904021604 81 294 2.0 7.0 0.00 0.00 0.00 73 1016.5
20260904021504 81 295 2.0 7.0 0.00 0.00 0.00 73 1016.4
20260904021404 81 296 2.0 7.0 0.00 0.00 0.00 73 1016.4
20260904021304 81 297 1.0 7.0 0.00 0.00 0.00 73 1016.5
20260904021204 81 296 1.0 7.0 0.00 0.00 0.00 73 1016.4
20260904021104 81 295 1.0 7.0 0.00 0.00 0.00 73 1016.4
20260904021004 81 295 1.0 7.0 0.00 0.00 0.00 73 1016.4
20260904020904 81 297 2.0 7.0 0.00 0.00 0.00 73 1016.5
20260904020804 81 298 2.0 9.0 0.00 0.00 0.00 73 1016.5
20260904020704 81 299 2.0 9.0 0.00 0.00 0.00 73 1016.5
20260904020604 81 297 2.0 9.0 0.00 0.00 0.00 73 1016.5
20260904020504 81 295 2.0 9.0 0.00 0.00 0.00 73 1016.5
20260904020404 81 294 2.0 9.0 0.00 0.00 0.00 73 1016.5
20260904020304 81 293 2.0 9.0 0.00 0.00 0.00 73 1016.5
20260904020204 81 294 3.0 9.0 0.00 0.00 0.00 73 1016.4
20260904020104 81 296 3.0 9.0 0.00 0.00 0.00 73 1016.4
20260904020004 81 296 3.0 9.0 0.00 0.00 0.00 73 1016.4
20260904015904 81 295 3.0 9.0 0.00 0.00 0.00 73 1016.4
20260904015804 81 294 3.0 8.0 0.00 0.00 0.00 73 1016.4
20260904015704 81 295 2.0 8.0 0.00 0.00 0.00 73 1016.5
20260904015604 81 295 2.0 8.0 0.00 0.00 0.00 73 1016.4
20260904015504 81 296 2.0 8.0 0.00 0.00 0.00 73 1016.4
20260904015404 81 297 2.0 8.0 0.00 0.00 0.00 73 1016.4
20260904015306 81 298 2.0 8.0 0.00 0.00 0.00 73 1016.4
20260904015204 81 298 2.0 8.0 0.00 0.00 0.00 73 1016.4
20260904015104 81 297 1.0 8.0 0.00 0.00 0.00 73 1016.4
20260904015004 81 298 1.0 6.0 0.00 0.00 0.00 73 1016.4
20260904014904 81 296 1.0 5.0 0.00 0.00 0.00 73 1016.5
20260904014804 81 299 1.0 6.0 0.00 0.00 0.00 73 1016.4
20260904014704 81 297 2.0 6.0 0.00 0.00 0.00 73 1016.4
20260904014604 81 297 2.0 6.0 0.00 0.00 0.00 73 1016.4
20260904014504 81 296 2.0 6.0 0.00 0.00 0.00 73 1016.4
20260904014404 81 295 1.0 6.0 0.00 0.00 0.00 73 1016.4
20260904014304 81 295 1.0 6.0 0.00 0.00 0.00 73 1016.4
20260904014203 81 296 1.0 6.0 0.00 0.00 0.00 73 1016.4
20260904014103 81 296 1.0 6.0 0.00 0.00 0.00 73 1016.4
20260904014004 81 296 1.0 6.0 0.00 0.00 0.00 73 1016.4
20260904013904 81 298 1.0 6.0 0.00 0.00 0.00 73 1016.4
20260904013804 81 294 1.0 8.0 0.00 0.00 0.00 73 1016.5
20260904013704 81 295 1.0 8.0 0.00 0.00 0.00 73 1016.4
20260904013603 81 294 1.0 8.0 0.00 0.00 0.00 73 1016.4
20260904013503 81 295 1.0 8.0 0.00 0.00 0.00 73 1016.4
20260904013404 81 295 1.0 8.0 0.00 0.00 0.00 73 1016.4
20260904013304 81 295 1.0 8.0 0.00 0.00 0.00 73 1016.5
20260904013203 81 295 1.0 8.0 0.00 0.00 0.00 73 1016.5
20260904013103 81 296 1.0 8.0 0.00 0.00 0.00 73 1016.4
20260904013003 81 297 1.0 8.0 0.00 0.00 0.00 73 1016.4
20260904012903 81 296 1.0 8.0 0.00 0.00 0.00 73 1016.5
20260904012803 81 295 1.0 5.0 0.00 0.00 0.00 73 1016.5
20260904012703 81 297 1.0 5.0 0.00 0.00 0.00 73 1016.5
20260904012603 81 300 1.0 5.0 0.00 0.00 0.00 73 1016.5
20260904012503 81 299 2.0 5.0 0.00 0.00 0.00 73 1016.4
20260904012403 81 299 2.0 6.0 0.00 0.00 0.00 73 1016.4
20260904012306 81 299 2.0 6.0 0.00 0.00 0.00 73 1016.5
20260904012203 81 301 2.0 6.0 0.00 0.00 0.00 73 1016.4
20260904012103 81 301 1.0 6.0 0.00 0.00 0.00 73 1016.4
20260904012003 81 299 1.0 6.0 0.00 0.00 0.00 73 1016.4
20260904011903 81 300 1.0 6.0 0.00 0.00 0.00 73 1016.4
20260904011803 81 303 1.0 6.0 0.00 0.00 0.00 73 1016.5
20260904011703 81 301 1.0 6.0 0.00 0.00 0.00 73 1016.4
20260904011603 81 298 1.0 6.0 0.00 0.00 0.00 73 1016.4
20260904011503 81 302 0.0 6.0 0.00 0.00 0.00 73 1016.4
20260904011403 81 308 0.0 4.0 0.00 0.00 0.00 73 1016.5
20260904011303 81 304 0.0 5.0 0.00 0.00 0.00 73 1016.4
20260904011203 81 297 1.0 5.0 0.00 0.00 0.00 73 1016.5
20260904011103 81 299 1.0 5.0 0.00 0.00 0.00 73 1016.5
20260904011003 81 301 1.0 5.0 0.00 0.00 0.00 73 1016.4
20260904010903 81 301 1.0 5.0 0.00 0.00 0.00 73 1016.4
20260904010803 81 298 1.0 6.0 0.00 0.00 0.00 73 1016.4
20260904010703 81 296 2.0 8.0 0.00 0.00 0.00 73 1016.4
20260904010603 81 296 2.0 8.0 0.00 0.00 0.00 73 1016.4
20260904010503 81 296 2.0 8.0 0.00 0.00 0.00 73 1016.4
20260904010403 81 297 3.0 8.0 0.00 0.00 0.00 73 1016.4
20260904010303 81 296 3.0 8.0 0.00 0.00 0.00 73 1016.4
20260904010203 81 296 3.0 8.0 0.00 0.00 0.00 73 1016.4
20260904010103 81 295 3.0 8.0 0.00 0.00 0.00 73 1016.4
20260904010003 81 295 3.0 8.0 0.00 0.00 0.00 73 1016.4
20260904005903 81 295 3.0 8.0 0.00 0.00 0.00 73 1016.4
20260904005803 81 294 3.0 8.0 0.00 0.00 0.00 73 1016.4
20260904005703 81 294 2.0 7.0 0.00 0.00 0.00 73 1016.3
20260904005603 81 295 2.0 7.0 0.00 0.00 0.00 73 1016.3
20260904005503 81 295 2.0 7.0 0.00 0.00 0.00 73 1016.2
20260904005403 81 293 2.0 7.0 0.00 0.00 0.00 73 1016.4
20260904005306 81 294 1.0 7.0 0.00 0.00 0.00 73 1016.3
20260904005203 81 294 1.0 7.0 0.00 0.00 0.00 73 1016.2
20260904005103 81 293 2.0 7.0 0.00 0.00 0.00 73 1016.3
20260904005003 81 295 2.0 7.0 0.00 0.00 0.00 73 1016.2
20260904004903 81 296 2.0 7.0 0.00 0.00 0.00 73 1016.1
20260904004803 81 298 2.0 7.0 0.00 0.00 0.00 73 1016.1
20260904004703 81 299 2.0 7.0 0.00 0.00 0.00 73 1016.1
20260904004603 81 296 2.0 7.0 0.00 0.00 0.00 73 1016.1
20260904004503 81 296 1.0 7.0 0.00 0.00 0.00 73 1016.2
20260904004403 81 297 1.0 6.0 0.00 0.00 0.00 73 1016.2
20260904004303 81 295 1.0 6.0 0.00 0.00 0.00 73 1016.2
20260904004203 81 294 2.0 6.0 0.00 0.00 0.00 73 1016.2
20260904004103 81 295 1.0 6.0 0.00 0.00 0.00 73 1016.2
20260904004003 81 294 1.0 6.0 0.00 0.00 0.00 73 1016.2
20260904003903 81 295 1.0 6.0 0.00 0.00 0.00 73 1016.1
20260904003803 81 293 1.0 6.0 0.00 0.00 0.00 73 1016.1
20260904003703 81 292 1.0 6.0 0.00 0.00 0.00 73 1016.2
20260904003605 81 292 1.0 6.0 0.00 0.00 0.00 73 1016.2
20260904003503 81 292 1.0 6.0 0.00 0.00 0.00 73 1016.3
20260904003403 81 292 2.0 6.0 0.00 0.00 0.00 73 1016.2
20260904003304 81 293 1.0 6.0 0.00 0.00 0.00 73 1016.3
20260904003203 81 294 1.0 6.0 0.00 0.00 0.00 73 1016.2
20260904003103 81 294 1.0 6.0 0.00 0.00 0.00 73 1016.2
20260904003003 81 295 1.0 6.0 0.00 0.00 0.00 73 1016.3
20260904002903 81 295 1.0 6.0 0.00 0.00 0.00 73 1016.2
20260904002803 81 296 1.0 6.0 0.00 0.00 0.00 73 1016.3
20260904002703 81 297 2.0 6.0 0.00 0.00 0.00 73 1016.3
20260904002603 81 297 2.0 6.0 0.00 0.00 0.00 73 1016.4
20260904002503 81 296 2.0 6.0 0.00 0.00 0.00 73 1016.4
20260904002403 81 297 2.0 6.0 0.00 0.00 0.00 72 1016.4
20260904002306 81 297 1.0 6.0 0.00 0.00 0.00 72 1016.3
20260904002203 81 297 1.0 6.0 0.00 0.00 0.00 73 1016.4
20260904002103 81 297 1.0 6.0 0.00 0.00 0.00 73 1016.4
20260904002003 81 296 1.0 6.0 0.00 0.00 0.00 72 1016.4
20260904001903 81 296 1.0 6.0 0.00 0.00 0.00 72 1016.4
20260904001803 81 297 1.0 6.0 0.00 0.00 0.00 73 1016.4
20260904001703 81 297 1.0 6.0 0.00 0.00 0.00 72 1016.4
20260904001603 81 300 1.0 6.0 0.00 0.00 0.00 72 1016.4
20260904001503 81 303 1.0 6.0 0.00 0.00 0.00 72 1016.4
20260904001403 81 304 1.0 7.0 0.00 0.00 0.00 72 1016.6
20260904001303 81 307 1.0 7.0 0.00 0.00 0.00 72 1016.6
20260904001203 81 306 1.0 7.0 0.00 0.00 0.00 72 1016.5
20260904001103 81 308 2.0 7.0 0.00 0.00 0.00 72 1016.5
20260904001004 81 308 2.0 7.0 0.00 0.00 0.00 72 1016.5
20260904000903 81 308 2.0 7.0 0.00 0.00 0.00 72 1016.5
20260904000803 81 310 1.0 7.0 0.00 0.00 0.00 72 1016.6
20260904000703 81 309 2.0 7.0 0.00 0.00 0.00 72 1016.6
20260904000603 81 306 2.0 7.0 0.00 0.00 0.00 72 1016.5
20260904000503 81 305 2.0 7.0 0.00 0.00 0.00 72 1016.6
20260904000403 81 305 1.0 7.0 0.00 0.00 0.00 72 1016.6
20260904000303 81 303 1.0 7.0 0.00 0.00 0.00 72 1016.6
20260904000204 81 302 1.0 7.0 0.00 0.00 0.00 72 1016.6
20260904000103 81 299 1.0 7.0 0.00 0.00 0.00 72 1016.7
20260904000003 81 299 1.0 7.0 0.00 0.00 0.00 72 1016.7
20260903235904 81 302 1.0 7.0 0.00 0.00 0.00 72 1016.7
20260903235804 81 301 1.0 7.0 0.00 0.00 0.00 72 1016.6
20260903235704 81 302 1.0 7.0 0.00 0.00 0.00 72 1016.7
20260903235604 81 301 2.0 7.0 0.00 0.00 0.00 72 1016.7
20260903235504 81 300 2.0 11.0 0.00 0.00 0.00 72 1016.7
20260903235404 81 300 2.0 11.0 0.00 0.00 0.00 72 1016.7
20260903235305 81 299 3.0 11.0 0.00 0.00 0.00 72 1016.7
20260903235204 81 300 3.0 11.0 0.00 0.00 0.00 72 1016.8
20260903235104 81 299 3.0 11.0 0.00 0.00 0.00 72 1016.6
20260903235004 81 300 3.0 11.0 0.00 0.00 0.00 72 1016.6
20260903234904 81 299 3.0 11.0 0.00 0.00 0.00 72 1016.7
20260903234804 81 299 4.0 11.0 0.00 0.00 0.00 72 1016.7
20260903234704 81 299 4.0 11.0 0.00 0.00 0.00 72 1016.7
20260903234604 81 299 4.0 11.0 0.00 0.00 0.00 72 1016.8
20260903234504 81 300 4.0 8.0 0.00 0.00 0.00 72 1016.6
20260903234404 81 300 4.0 8.0 0.00 0.00 0.00 72 1016.6
20260903234304 81 301 4.0 8.0 0.00 0.00 0.00 72 1016.7
20260903234204 81 300 4.0 8.0 0.00 0.00 0.00 72 1016.7
20260903234104 81 300 4.0 8.0 0.00 0.00 0.00 72 1016.7
20260903234004 81 299 4.0 8.0 0.00 0.00 0.00 72 1016.7
20260903233904 81 299 3.0 8.0 0.00 0.00 0.00 72 1016.8
20260903233804 82 300 3.0 8.0 0.00 0.00 0.00 72 1016.7
20260903233704 82 301 3.0 8.0 0.00 0.00 0.00 72 1016.7
20260903233604 82 301 2.0 7.0 0.00 0.00 0.00 72 1016.8
20260903233504 82 301 2.0 7.0 0.00 0.00 0.00 72 1016.8
20260903233404 82 300 2.0 7.0 0.00 0.00 0.00 72 1016.7
20260903233304 82 298 2.0 7.0 0.00 0.00 0.00 72 1016.8
20260903233204 82 298 1.0 6.0 0.00 0.00 0.00 72 1016.8
20260903233104 82 298 1.0 5.0 0.00 0.00 0.00 72 1016.8
20260903233004 82 297 2.0 5.0 0.00 0.00 0.00 72 1016.8
20260903232904 82 298 2.0 5.0 0.00 0.00 0.00 72 1016.8
20260903232804 82 295 1.0 5.0 0.00 0.00 0.00 72 1016.8
20260903232704 82 296 1.0 5.0 0.00 0.00 0.00 72 1016.8
20260903232604 82 297 1.0 5.0 0.00 0.00 0.00 72 1016.8
20260903232504 82 297 1.0 5.0 0.00 0.00 0.00 72 1016.8
20260903232404 82 297 1.0 5.0 0.00 0.00 0.00 72 1016.9
20260903232306 82 299 1.0 5.0 0.00 0.00 0.00 72 1016.9
20260903232204 82 297 1.0 5.0 0.00 0.00 0.00 72 1016.9
20260903232103 82 297 1.0 5.0 0.00 0.00 0.00 72 1016.8
20260903232004 82 300 1.0 4.0 0.00 0.00 0.00 72 1016.8
20260903231903 82 298 0.0 4.0 0.00 0.00 0.00 72 1016.8
20260903231804 82 298 1.0 4.0 0.00 0.00 0.00 72 1016.8
20260903231703 82 297 1.0 4.0 0.00 0.00 0.00 72 1016.8
20260903231604 82 297 1.0 4.0 0.00 0.00 0.00 72 1016.7
20260903231504 82 296 1.0 4.0 0.00 0.00 0.00 72 1016.8
20260903231404 82 298 1.0 4.0 0.00 0.00 0.00 72 1016.8
20260903231304 82 298 2.0 4.0 0.00 0.00 0.00 72 1016.8
20260903231204 82 298 2.0 5.0 0.00 0.00 0.00 72 1016.9
20260903231004 82 295 1.0 5.0 0.00 0.00 0.00 72 1016.9
20260903230904 82 296 1.0 6.0 0.00 0.00 0.00 72 1016.9
20260903230804 82 295 1.0 6.0 0.00 0.00 0.00 72 1016.9
20260903230704 82 296 1.0 6.0 0.00 0.00 0.00 72 1016.9
20260903230604 82 299 1.0 6.0 0.00 0.00 0.00 72 1016.9
20260903230504 82 303 2.0 6.0 0.00 0.00 0.00 72 1016.8
20260903230404 82 301 2.0 6.0 0.00 0.00 0.00 71 1016.8
20260903230304 82 300 2.0 9.0 0.00 0.00 0.00 71 1016.8
20260903230204 82 300 3.0 9.0 0.00 0.00 0.00 72 1016.8
20260903230104 82 302 3.0 9.0 0.00 0.00 0.00 71 1016.8
20260903230004 82 303 3.0 9.0 0.00 0.00 0.00 71 1016.8
20260903225904 82 302 3.0 9.0 0.00 0.00 0.00 71 1016.8
20260903225804 82 303 3.0 9.0 0.00 0.00 0.00 71 1016.8
20260903225704 82 303 3.0 9.0 0.00 0.00 0.00 71 1016.8
20260903225604 82 302 3.0 9.0 0.00 0.00 0.00 71 1016.8
20260903225504 82 299 3.0 9.0 0.00 0.00 0.00 71 1016.8
20260903225403 82 300 2.0 9.0 0.00 0.00 0.00 71 1016.9
20260903225306 82 299 2.0 8.0 0.00 0.00 0.00 71 1016.8
20260903225204 82 299 2.0 7.0 0.00 0.00 0.00 71 1016.8
20260903225103 82 297 1.0 7.0 0.00 0.00 0.00 71 1016.8
20260903225003 82 298 2.0 7.0 0.00 0.00 0.00 71 1016.9
20260903224903 82 297 1.0 7.0 0.00 0.00 0.00 71 1016.8
20260903224803 82 297 1.0 7.0 0.00 0.00 0.00 71 1016.9
20260903224703 82 295 1.0 7.0 0.00 0.00 0.00 71 1016.8
20260903224603 82 294 1.0 7.0 0.00 0.00 0.00 71 1016.8
20260903224503 82 295 2.0 7.0 0.00 0.00 0.00 72 1016.8
20260903224403 82 294 1.0 7.0 0.00 0.00 0.00 71 1016.8
20260903224303 82 294 2.0 7.0 0.00 0.00 0.00 72 1016.8
20260903224203 82 295 2.0 7.0 0.00 0.00 0.00 72 1016.8
20260903224103 82 294 2.0 7.0 0.00 0.00 0.00 71 1016.8
20260903224003 82 295 2.0 7.0 0.00 0.00 0.00 71 1016.8
20260903223903 82 295 2.0 7.0 0.00 0.00 0.00 72 1016.8
20260903223803 82 296 2.0 7.0 0.00 0.00 0.00 71 1016.8
20260903223704 82 295 2.0 7.0 0.00 0.00 0.00 71 1016.8
20260903223603 82 296 2.0 7.0 0.00 0.00 0.00 71 1016.7
20260903223504 82 296 1.0 7.0 0.00 0.00 0.00 71 1016.7
20260903223403 82 297 1.0 7.0 0.00 0.00 0.00 71 1016.6
20260903223303 82 299 1.0 7.0 0.00 0.00 0.00 71 1016.6
20260903223203 82 298 1.0 7.0 0.00 0.00 0.00 71 1016.6
20260903223103 82 301 1.0 7.0 0.00 0.00 0.00 71 1016.6
20260903223003 82 297 1.0 6.0 0.00 0.00 0.00 71 1016.7
20260903222903 82 300 1.0 9.0 0.00 0.00 0.00 71 1016.7
20260903222803 82 302 2.0 9.0 0.00 0.00 0.00 71 1016.7
20260903222703 82 304 2.0 9.0 0.00 0.00 0.00 71 1016.7
20260903222603 82 303 2.0 9.0 0.00 0.00 0.00 71 1016.7
20260903222503 82 302 2.0 9.0 0.00 0.00 0.00 71 1016.7
20260903222403 82 301 2.0 9.0 0.00 0.00 0.00 71 1016.7
20260903222305 82 301 2.0 9.0 0.00 0.00 0.00 71 1016.7
20260903222203 82 302 2.0 9.0 0.00 0.00 0.00 71 1016.7
20260903222103 82 301 2.0 9.0 0.00 0.00 0.00 71 1016.8
20260903222003 82 302 2.0 9.0 0.00 0.00 0.00 71 1016.8
20260903221903 82 300 2.0 6.0 0.00 0.00 0.00 71 1016.8
20260903221803 82 298 1.0 6.0 0.00 0.00 0.00 71 1016.8
20260903221703 82 295 1.0 6.0 0.00 0.00 0.00 71 1016.8
20260903221603 82 294 1.0 6.0 0.00 0.00 0.00 71 1016.8
20260903221503 82 294 1.0 6.0 0.00 0.00 0.00 71 1016.8
20260903221403 82 294 1.0 6.0 0.00 0.00 0.00 71 1016.9
20260903221303 82 293 1.0 6.0 0.00 0.00 0.00 71 1016.8
20260903221203 82 292 1.0 6.0 0.00 0.00 0.00 71 1016.8
20260903221103 82 289 1.0 6.0 0.00 0.00 0.00 71 1016.8
20260903221003 82 290 1.0 6.0 0.00 0.00 0.00 71 1016.8
20260903220903 82 291 1.0 5.0 0.00 0.00 0.00 72 1016.8
20260903220803 82 279 1.0 4.0 0.00 0.00 0.00 71 1016.9
20260903220703 82 284 1.0 4.0 0.00 0.00 0.00 71 1016.7
20260903220603 82 290 1.0 5.0 0.00 0.00 0.00 71 1016.7
20260903220503 82 291 1.0 5.0 0.00 0.00 0.00 71 1016.8
20260903220403 82 291 1.0 5.0 0.00 0.00 0.00 71 1016.8
20260903220303 82 291 1.0 5.0 0.00 0.00 0.00 71 1016.8
20260903220203 82 291 2.0 7.0 0.00 0.00 0.00 71 1016.8
20260903215903 82 293 2.0 7.0 0.00 0.00 0.00 71 1016.8
20260903215803 82 293 2.0 7.0 0.00 0.00 0.00 71 1016.8
20260903215703 82 293 2.0 7.0 0.00 0.00 0.00 71 1016.8
20260903215603 82 293 1.0 7.0 0.00 0.00 0.00 71 1016.8
20260903215503 82 292 1.0 7.0 0.00 0.00 0.00 71 1016.8
20260903215403 82 292 1.0 7.0 0.00 0.00 0.00 71 1016.8
20260903215306 82 292 1.0 7.0 0.00 0.00 0.00 71 1016.8
20260903215203 82 294 1.0 5.0 0.00 0.00 0.00 71 1016.8
20260903215103 82 289 0.0 3.0 0.00 0.00 0.00 71 1016.8
20260903215003 82 290 0.0 3.0 0.00 0.00 0.00 71 1016.8
20260903214903 82 290 0.0 3.0 0.00 0.00 0.00 71 1016.8
20260903214803 82 293 1.0 4.0 0.00 0.00 0.00 71 1016.8
20260903214703 82 295 1.0 4.0 0.00 0.00 0.00 71 1016.8
20260903214603 82 294 1.0 5.0 0.00 0.00 0.00 71 1016.8
20260903214503 82 294 1.0 5.0 0.00 0.00 0.00 71 1016.8
20260903214403 82 294 1.0 5.0 0.00 0.00 0.00 71 1016.8
20260903214303 82 294 1.0 6.0 0.00 0.00 0.00 71 1016.8
20260903214203 82 294 1.0 6.0 0.00 0.00 0.00 71 1016.8
20260903214103 82 294 1.0 6.0 0.00 0.00 0.00 71 1016.8
20260903214003 82 294 1.0 6.0 0.00 0.00 0.00 71 1016.8
20260903213903 82 294 2.0 6.0 0.00 0.00 0.00 71 1016.9
20260903213803 82 294 1.0 6.0 0.00 0.00 0.00 71 1016.8
20260903213703 82 294 2.0 6.0 0.00 0.00 0.00 71 1016.8
20260903213603 82 296 2.0 6.0 0.00 0.00 0.00 71 1016.8
20260903213503 82 296 2.0 6.0 0.00 0.00 0.00 71 1016.8
20260903213403 82 297 2.0 6.0 0.00 0.00 0.00 71 1016.9
20260903213303 82 297 2.0 6.0 0.00 0.00 0.00 71 1016.9
20260903213203 82 298 2.0 6.0 0.00 0.00 0.00 71 1016.9
20260903213103 82 298 2.0 6.0 0.00 0.00 0.00 71 1016.8
20260903213003 82 298 2.0 6.0 0.00 0.00 0.00 72 1016.8
20260903212903 82 298 2.0 6.0 0.00 0.00 0.00 72 1016.9
20260903212803 82 298 3.0 6.0 0.00 0.00 0.00 72 1016.9
20260903212703 82 298 2.0 6.0 0.00 0.00 0.00 72 1016.9
20260903212603 82 298 2.0 6.0 0.00 0.00 0.00 72 1016.9
20260903212503 82 298 2.0 6.0 0.00 0.00 0.00 72 1016.9
20260903212403 82 297 2.0 6.0 0.00 0.00 0.00 72 1016.9
20260903212306 82 297 2.0 5.0 0.00 0.00 0.00 72 1016.9
20260903212204 82 295 2.0 5.0 0.00 0.00 0.00 72 1016.9
20260903212104 82 296 2.0 5.0 0.00 0.00 0.00 72 1016.9
20260903212004 82 297 2.0 6.0 0.00 0.00 0.00 72 1016.9
20260903211904 82 296 2.0 6.0 0.00 0.00 0.00 72 1016.9
20260903211804 82 296 2.0 6.0 0.00 0.00 0.00 72 1016.9
20260903211704 82 296 2.0 6.0 0.00 0.00 0.00 72 1016.9
20260903211604 82 297 2.0 6.0 0.00 0.00 0.00 72 1016.9
20260903211504 82 298 2.0 6.0 0.00 0.00 0.00 72 1016.9
20260903211404 82 297 2.0 7.0 0.00 0.00 0.00 72 1017.0
20260903211304 82 297 2.0 7.0 0.00 0.00 0.00 72 1016.9
20260903211204 82 297 2.0 7.0 0.00 0.00 0.00 72 1017.0
20260903211104 82 297 2.0 7.0 0.00 0.00 0.00 72 1017.0
20260903211004 82 296 3.0 7.0 0.00 0.00 0.00 72 1017.0
20260903210904 82 296 3.0 7.0 0.00 0.00 0.00 72 1016.9
20260903210804 82 296 3.0 7.0 0.00 0.00 0.00 72 1016.9
20260903210704 82 297 3.0 7.0 0.00 0.00 0.00 72 1017.1
20260903210604 82 297 3.0 7.0 0.00 0.00 0.00 72 1017.0
20260903210504 82 296 3.0 7.0 0.00 0.00 0.00 72 1017.0
20260903210404 82 297 3.0 7.0 0.00 0.00 0.00 72 1017.1
20260903210304 82 296 3.0 7.0 0.00 0.00 0.00 72 1017.2
20260903210204 82 297 3.0 7.0 0.00 0.00 0.00 72 1017.2
20260903210104 82 297 4.0 7.0 0.00 0.00 0.00 72 1017.3
20260903210004 82 297 4.0 7.0 0.00 0.00 0.00 72 1017.3
20260903205904 82 297 3.0 7.0 0.00 0.00 0.00 72 1017.2
20260903205804 82 297 3.0 7.0 0.00 0.00 0.00 72 1017.2
20260903205704 82 296 3.0 7.0 0.00 0.00 0.00 72 1017.3
20260903205604 82 297 3.0 6.0 0.00 0.00 0.00 72 1017.2
20260903205504 82 297 3.0 6.0 0.00 0.00 0.00 72 1017.2
20260903205404 82 296 3.0 6.0 0.00 0.00 0.00 72 1017.3
20260903205306 82 297 2.0 6.0 0.00 0.00 0.00 72 1017.2
20260903205204 83 298 2.0 6.0 0.00 0.00 0.00 72 1017.2
20260903205104 82 300 2.0 6.0 0.00 0.00 0.00 72 1017.2
20260903205004 82 300 2.0 6.0 0.00 0.00 0.00 72 1017.1
20260903204904 83 301 2.0 6.0 0.00 0.00 0.00 72 1017.1
20260903204804 82 301 2.0 6.0 0.00 0.00 0.00 72 1017.1
20260903204704 83 300 2.0 6.0 0.00 0.00 0.00 72 1017.2
20260903204604 83 298 2.0 6.0 0.00 0.00 0.00 72 1017.2
20260903204504 83 297 2.0 6.0 0.00 0.00 0.00 72 1017.0
20260903204404 83 298 2.0 6.0 0.00 0.00 0.00 72 1017.1
20260903204304 83 298 2.0 6.0 0.00 0.00 0.00 72 1017.1
20260903204204 83 296 2.0 6.0 0.00 0.00 0.00 72 1017.2
20260903204104 83 293 2.0 6.0 0.00 0.00 0.00 72 1017.1
20260903204004 83 292 2.0 6.0 0.00 0.00 0.00 72 1017.1
20260903203904 83 292 2.0 6.0 0.00 0.00 0.00 72 1017.0
20260903203804 83 292 2.0 6.0 0.00 0.00 0.00 72 1017.1
20260903203704 83 292 2.0 6.0 0.00 0.00 0.00 72 1017.1
20260903203604 83 292 2.0 6.0 0.00 0.00 0.00 72 1017.2
20260903203504 83 292 2.0 6.0 0.00 0.00 0.00 72 1017.2
20260903203404 83 292 2.0 6.0 0.00 0.00 0.00 72 1017.2
20260903203304 83 292 2.0 6.0 0.00 0.00 0.00 72 1017.2
20260903203204 83 292 2.0 6.0 0.00 0.00 0.00 72 1017.1
20260903203104 83 292 2.0 6.0 0.00 0.00 0.00 72 1017.1
20260903203004 83 292 2.0 6.0 0.00 0.00 0.00 72 1017.2
20260903202903 83 293 2.0 6.0 0.00 0.00 0.00 72 1017.1
20260903202804 83 293 2.0 6.0 0.00 0.00 0.00 72 1017.2
20260903202703 83 293 2.0 5.0 0.00 0.00 0.00 72 1017.2
20260903202603 83 293 2.0 5.0 0.00 0.00 0.00 71 1017.2
20260903202504 83 293 2.0 5.0 0.00 0.00 0.00 71 1017.2
20260903202404 83 294 2.0 5.0 0.00 0.00 0.00 71 1017.1
20260903202306 83 294 2.0 5.0 0.00 0.00 0.00 71 1017.1
20260903202204 83 294 2.0 5.0 0.00 0.00 0.00 71 1017.1
20260903202103 83 294 1.0 5.0 0.00 0.00 0.00 71 1017.0
20260903202003 83 294 1.0 4.0 0.00 0.00 0.00 71 1017.1
20260903201903 83 293 1.0 4.0 0.00 0.00 0.00 71 1017.0
20260903201803 83 293 1.0 4.0 0.00 0.00 0.00 71 1017.1
20260903201703 83 292 1.0 4.0 0.00 0.00 0.00 71 1017.2
20260903201603 83 292 1.0 4.0 0.00 0.00 0.00 71 1017.1
20260903201503 83 292 1.0 4.0 0.00 0.00 0.00 71 1017.0
20260903201403 83 292 2.0 4.0 0.00 0.00 0.00 71 1017.1
20260903201303 83 292 2.0 4.0 0.00 0.00 0.00 71 1017.1
20260903201203 83 292 2.0 4.0 0.00 0.00 0.00 70 1017.1
20260903201103 83 292 2.0 4.0 0.00 0.00 0.00 70 1017.1
20260903201003 83 292 2.0 4.0 0.00 0.00 0.00 70 1017.1
20260903200903 83 292 2.0 4.0 0.00 0.00 0.00 70 1017.1
20260903200803 83 292 2.0 4.0 0.00 0.00 0.00 70 1017.1
20260903200703 83 292 2.0 4.0 0.00 0.00 0.00 70 1017.1
20260903200603 83 292 2.0 4.0 0.00 0.00 0.00 70 1017.0
20260903200503 83 292 2.0 4.0 0.00 0.00 0.00 70 1017.0
20260903200403 83 293 1.0 4.0 0.00 0.00 0.00 70 1017.1
20260903200303 83 293 2.0 5.0 0.00 0.00 0.00 70 1017.2
20260903200203 83 292 2.0 6.0 0.00 0.00 0.00 70 1017.2
20260903200103 83 292 2.0 6.0 0.00 0.00 0.00 70 1017.1
20260903200003 83 292 2.0 6.0 0.00 0.00 0.00 70 1017.1
20260903195903 83 292 2.0 6.0 0.00 0.00 0.00 70 1017.1
20260903195803 83 292 2.0 6.0 0.00 0.00 0.00 70 1017.1
20260903195703 83 294 2.0 6.0 0.00 0.00 0.00 70 1017.1
20260903195603 83 294 2.0 6.0 0.00 0.00 0.00 70 1017.2
20260903195503 83 294 2.0 6.0 0.00 0.00 0.00 70 1017.1
20260903195403 83 294 2.0 6.0 0.00 0.00 0.00 70 1017.1
20260903195306 83 295 3.0 6.0 0.00 0.00 0.00 70 1017.1
20260903195203 83 295 3.0 6.0 0.00 0.00 0.00 70 1017.0
20260903195103 83 295 3.0 6.0 0.00 0.00 0.00 70 1017.1
20260903195004 83 295 3.0 6.0 0.00 0.00 0.00 70 1017.1
20260903194903 83 296 3.0 6.0 0.00 0.00 0.00 70 1017.1
20260903194803 83 296 3.0 6.0 0.00 0.00 0.00 70 1017.2
20260903194703 83 295 3.0 6.0 0.00 0.00 0.00 71 1017.1
20260903194603 83 295 3.0 6.0 0.00 0.00 0.00 71 1017.0
20260903194503 83 295 3.0 6.0 0.00 0.00 0.00 71 1016.9
20260903194403 83 295 3.0 6.0 0.00 0.00 0.00 71 1017.1
20260903194303 83 295 3.0 6.0 0.00 0.00 0.00 71 1017.1
20260903194203 83 295 3.0 6.0 0.00 0.00 0.00 71 1017.0
20260903194103 83 296 3.0 6.0 0.00 0.00 0.00 71 1016.9
20260903194003 83 296 3.0 6.0 0.00 0.00 0.00 71 1017.0
20260903193903 83 295 3.0 6.0 0.00 0.00 0.00 71 1017.1
20260903193803 83 294 3.0 6.0 0.00 0.00 0.00 71 1017.0
20260903193703 83 295 3.0 6.0 0.00 0.00 0.00 71 1017.0
20260903193603 83 294 3.0 6.0 0.00 0.00 0.00 71 1017.0
20260903193503 83 295 3.0 6.0 0.00 0.00 0.00 71 1017.1
20260903193403 83 295 3.0 6.0 0.00 0.00 0.00 71 1017.1
20260903193303 83 295 3.0 6.0 0.00 0.00 0.00 71 1017.1
20260903193203 83 295 3.0 6.0 0.00 0.00 0.00 71 1017.1
20260903193103 83 296 3.0 6.0 0.00 0.00 0.00 71 1017.2
20260903193003 83 296 3.0 6.0 0.00 0.00 0.00 71 1017.1
20260903192903 83 296 3.0 6.0 0.00 0.00 0.00 71 1017.1
20260903192803 83 296 3.0 6.0 0.00 0.00 0.00 71 1017.1
20260903192703 83 295 3.0 7.0 0.00 0.00 0.00 71 1017.0
20260903192603 83 296 3.0 7.0 0.00 0.00 0.00 71 1017.0
20260903192503 83 294 3.0 8.0 0.00 0.00 0.00 71 1017.0
20260903192403 83 294 3.0 8.0 0.00 0.00 0.00 71 1017.0
20260903192306 83 293 3.0 8.0 0.00 0.00 0.00 71 1016.9
20260903192203 83 294 4.0 9.0 0.00 0.00 0.00 71 1016.9
20260903192103 83 292 4.0 9.0 0.00 0.00 0.00 71 1016.9
20260903192003 83 292 4.0 9.0 0.00 0.00 0.00 71 1016.9
20260903191903 83 293 4.0 9.0 0.00 0.00 0.00 71 1016.9
20260903191803 83 293 4.0 9.0 0.00 0.00 0.00 71 1016.9
20260903191703 83 293 4.0 9.0 0.00 0.00 0.00 71 1016.9
20260903191603 83 294 4.0 9.0 0.00 0.00 0.00 71 1016.9
20260903191503 83 294 4.0 9.0 0.00 0.00 0.00 71 1016.8
20260903191403 83 295 3.0 9.0 0.00 0.00 0.00 71 1016.8
20260903191303 83 295 3.0 9.0 0.00 0.00 0.00 71 1016.8
20260903191203 83 295 3.0 9.0 0.00 0.00 0.00 71 1016.8
20260903191103 83 296 2.0 7.0 0.00 0.00 0.00 70 1016.9
20260903191003 83 296 2.0 7.0 0.00 0.00 0.00 70 1016.8
20260903190903 83 299 2.0 7.0 0.00 0.00 0.00 70 1016.7
20260903190803 83 301 2.0 7.0 0.00 0.00 0.00 70 1016.7
20260903190703 83 302 2.0 8.0 0.00 0.00 0.00 70 1016.7
20260903190603 83 300 2.0 8.0 0.00 0.00 0.00 70 1016.8
20260903190503 83 299 2.0 8.0 0.00 0.00 0.00 70 1016.7
20260903190403 83 301 2.0 8.0 0.00 0.00 0.00 70 1016.7
20260903190303 83 300 3.0 8.0 0.00 0.00 0.00 70 1016.6
20260903190203 83 299 3.0 8.0 0.00 0.00 0.00 70 1016.7
20260903190003 83 298 3.0 8.0 0.00 0.00 0.00 70 1016.5
20260903185903 84 298 3.0 8.0 0.00 0.00 0.00 70 1016.6
20260903185803 84 297 3.0 8.0 0.00 0.00 0.00 69 1016.5
20260903185703 84 296 3.0 7.0 0.00 0.00 0.00 69 1016.5
20260903185603 84 297 3.0 7.0 0.00 0.00 0.00 69 1016.5
20260903185503 84 297 2.0 7.0 0.00 0.00 0.00 69 1016.5
20260903185403 84 294 2.0 7.0 0.00 0.00 0.00 69 1016.5
20260903185306 84 294 2.0 5.0 0.00 0.00 0.00 69 1016.5
20260903185203 84 295 2.0 6.0 0.00 0.00 0.00 69 1016.5
20260903185103 84 296 2.0 6.0 0.00 0.00 0.00 69 1016.5
20260903185003 84 296 2.0 6.0 0.00 0.00 0.00 69 1016.5
20260903184903 84 295 3.0 6.0 0.00 0.00 0.00 69 1016.5
20260903184803 84 296 3.0 6.0 0.00 0.00 0.00 69 1016.5
20260903184703 84 298 3.0 6.0 0.00 0.00 0.00 69 1016.5
20260903184603 84 298 3.0 6.0 0.00 0.00 0.00 69 1016.5
20260903184504 84 297 4.0 6.0 0.00 0.00 0.00 69 1016.5
20260903184404 84 298 4.0 6.0 0.00 0.00 0.00 69 1016.5
20260903184304 84 298 4.0 6.0 0.00 0.00 0.00 69 1016.5
20260903184204 84 299 3.0 6.0 0.00 0.00 0.00 69 1016.5
20260903184104 84 299 3.0 6.0 0.00 0.00 0.00 69 1016.5
20260903184004 84 299 3.0 6.0 0.00 0.00 0.00 69 1016.5
20260903183904 84 299 3.0 6.0 0.00 0.00 0.00 69 1016.5
20260903183804 84 298 3.0 6.0 0.00 0.00 0.00 69 1016.6
20260903183704 84 297 3.0 6.0 0.00 0.00 0.00 69 1016.6
20260903183604 84 298 3.0 6.0 0.00 0.00 0.00 69 1016.5
20260903183504 84 299 3.0 6.0 0.00 0.00 0.00 69 1016.6
20260903183404 84 300 3.0 7.0 0.00 0.00 0.00 69 1016.5
20260903183304 84 300 3.0 9.0 0.00 0.00 0.00 68 1016.5
20260903183204 84 301 3.0 9.0 0.00 0.00 0.00 69 1016.5
20260903183104 84 300 4.0 9.0 0.00 0.00 0.00 69 1016.4
20260903183004 84 300 4.0 9.0 0.00 0.00 0.00 69 1016.4
20260903182904 84 300 4.0 9.0 0.00 0.00 0.00 68 1016.4
20260903182804 84 300 4.0 9.0 0.00 0.00 0.00 68 1016.4
20260903182704 84 299 4.0 9.0 0.00 0.00 0.00 68 1016.4
20260903182604 84 299 3.0 9.0 0.00 0.00 0.00 68 1016.4
20260903182504 84 299 3.0 9.0 0.00 0.00 0.00 68 1016.3
20260903182404 84 298 3.0 9.0 0.00 0.00 0.00 68 1016.3
20260903182306 84 300 3.0 8.0 0.00 0.00 0.00 68 1016.4
20260903182204 84 301 3.0 7.0 0.00 0.00 0.00 68 1016.4
20260903182104 84 301 3.0 7.0 0.00 0.00 0.00 68 1016.4
20260903182004 84 301 3.0 7.0 0.00 0.00 0.00 68 1016.5
20260903181904 84 301 3.0 7.0 0.00 0.00 0.00 68 1016.5
20260903181804 84 301 3.0 7.0 0.00 0.00 0.00 68 1016.4
20260903181704 84 302 3.0 7.0 0.00 0.00 0.00 68 1016.5
20260903181604 84 303 3.0 7.0 0.00 0.00 0.00 68 1016.4
20260903181504 84 301 3.0 7.0 0.00 0.00 0.00 68 1016.4
20260903181404 84 302 3.0 7.0 0.00 0.00 0.00 68 1016.4
20260903181304 84 299 2.0 7.0 0.00 0.00 0.00 68 1016.3
20260903181204 84 298 2.0 6.0 0.00 0.00 0.00 68 1016.4
20260903181104 84 298 2.0 6.0 0.00 0.00 0.00 68 1016.4
20260903181004 84 297 2.0 6.0 0.00 0.00 0.00 69 1016.4
20260903180904 84 297 1.0 6.0 0.00 0.00 0.00 68 1016.4
20260903180804 84 296 1.0 6.0 0.00 0.00 0.00 68 1016.3
20260903180704 84 296 1.0 6.0 0.00 0.00 0.00 68 1016.3
20260903180604 84 298 1.0 6.0 0.00 0.00 0.00 68 1016.3
20260903180504 84 299 1.0 6.0 0.00 0.00 0.00 69 1016.3
20260903180404 84 297 2.0 7.0 0.00 0.00 0.00 69 1016.2
20260903180304 84 298 2.0 7.0 0.00 0.00 0.00 68 1016.3
20260903180204 84 298 2.0 7.0 0.00 0.00 0.00 68 1016.2
20260903180104 84 298 2.0 7.0 0.00 0.00 0.00 68 1016.2
20260903180004 84 298 2.0 7.0 0.00 0.00 0.00 68 1016.2
20260903175904 84 298 2.0 7.0 0.00 0.00 0.00 69 1016.2
20260903175804 84 298 2.0 7.0 0.00 0.00 0.00 69 1016.1
20260903175703 84 298 2.0 7.0 0.00 0.00 0.00 68 1016.1
20260903175604 84 298 2.0 7.0 0.00 0.00 0.00 69 1016.2
20260903175503 84 299 2.0 7.0 0.00 0.00 0.00 68 1016.1
20260903175403 84 300 2.0 6.0 0.00 0.00 0.00 68 1016.1
20260903175306 84 300 2.0 6.0 0.00 0.00 0.00 68 1016.1
20260903175204 84 300 2.0 6.0 0.00 0.00 0.00 68 1016.0
20260903175103 84 301 2.0 6.0 0.00 0.00 0.00 68 1016.0
20260903175003 84 300 2.0 6.0 0.00 0.00 0.00 68 1016.1
20260903174904 84 300 2.0 6.0 0.00 0.00 0.00 68 1016.2
20260903174803 84 299 2.0 6.0 0.00 0.00 0.00 68 1016.1
20260903174703 84 298 2.0 6.0 0.00 0.00 0.00 68 1016.1
20260903174603 84 296 2.0 6.0 0.00 0.00 0.00 68 1016.1
20260903174503 84 292 2.0 6.0 0.00 0.00 0.00 68 1016.1
20260903174403 84 291 2.0 6.0 0.00 0.00 0.00 68 1016.0
20260903174303 84 291 1.0 6.0 0.00 0.00 0.00 68 1016.1
20260903174203 84 291 2.0 6.0 0.00 0.00 0.00 68 1016.1
20260903174104 84 292 2.0 6.0 0.00 0.00 0.00 68 1016.1
20260903174003 84 293 2.0 6.0 0.00 0.00 0.00 68 1016.2
20260903173903 84 294 2.0 6.0 0.00 0.00 0.00 68 1016.1
20260903173803 84 296 2.0 7.0 0.00 0.00 0.00 68 1016.0
20260903173703 84 296 3.0 7.0 0.00 0.00 0.00 68 1016.1
20260903173604 84 296 3.0 7.0 0.00 0.00 0.00 68 1016.1
20260903173503 84 297 3.0 7.0 0.00 0.00 0.00 68 1016.0
20260903173403 84 297 3.0 7.0 0.00 0.00 0.00 68 1016.0
20260903173303 84 297 3.0 7.0 0.00 0.00 0.00 68 1016.0
20260903173203 84 297 3.0 7.0 0.00 0.00 0.00 68 1015.9
20260903173103 84 297 3.0 7.0 0.00 0.00 0.00 68 1016.0
20260903173003 84 296 3.0 7.0 0.00 0.00 0.00 68 1016.0
20260903172903 84 296 3.0 7.0 0.00 0.00 0.00 68 1015.9
20260903172803 84 295 3.0 7.0 0.00 0.00 0.00 67 1015.9
20260903172703 84 297 3.0 7.0 0.00 0.00 0.00 67 1015.9
20260903172603 84 296 3.0 7.0 0.00 0.00 0.00 67 1016.0
20260903172503 84 296 3.0 7.0 0.00 0.00 0.00 67 1016.0
20260903172403 84 296 3.0 7.0 0.00 0.00 0.00 67 1015.9
20260903172306 84 297 3.0 7.0 0.00 0.00 0.00 67 1015.9
20260903172203 84 296 3.0 7.0 0.00 0.00 0.00 67 1016.0
20260903172103 84 296 3.0 7.0 0.00 0.00 0.00 67 1015.9
20260903172003 84 297 3.0 7.0 0.00 0.00 0.00 67 1015.9
20260903171903 84 296 3.0 7.0 0.00 0.00 0.00 67 1016.0
20260903171803 84 295 4.0 7.0 0.00 0.00 0.00 67 1016.0
20260903171703 84 295 4.0 7.0 0.00 0.00 0.00 67 1016.0
20260903171603 85 296 4.0 7.0 0.00 0.00 0.00 67 1016.0
20260903171503 85 296 4.0 7.0 0.00 0.00 0.00 67 1016.0
20260903171403 85 296 4.0 7.0 0.00 0.00 0.00 66 1016.0
20260903171303 85 296 3.0 7.0 0.00 0.00 0.00 66 1016.1
20260903171203 85 296 4.0 7.0 0.00 0.00 0.00 66 1016.1
20260903171103 85 296 4.0 7.0 0.00 0.00 0.00 66 1016.0
20260903171003 85 295 4.0 7.0 0.00 0.00 0.00 66 1015.9
20260903170903 85 297 4.0 7.0 0.00 0.00 0.00 66 1015.8
20260903170803 85 298 4.0 7.0 0.00 0.00 0.00 66 1015.8
20260903170703 85 296 4.0 7.0 0.00 0.00 0.00 66 1015.7
20260903170603 85 296 4.0 7.0 0.00 0.00 0.00 66 1015.8
20260903170503 85 296 4.0 7.0 0.00 0.00 0.00 66 1015.8
20260903170403 85 295 4.0 7.0 0.00 0.00 0.00 66 1015.8
20260903170303 85 295 4.0 7.0 0.00 0.00 0.00 66 1015.8
20260903170203 85 296 3.0 7.0 0.00 0.00 0.00 67 1015.7
20260903170103 85 296 3.0 7.0 0.00 0.00 0.00 67 1015.6
20260903170003 85 296 3.0 7.0 0.00 0.00 0.00 67 1015.6
20260903165903 85 296 3.0 7.0 0.00 0.00 0.00 67 1015.7
20260903165803 85 295 2.0 7.0 0.00 0.00 0.00 67 1015.6
20260903165703 85 295 2.0 7.0 0.00 0.00 0.00 67 1015.6
20260903165603 85 296 2.0 8.0 0.00 0.00 0.00 66 1015.5
20260903165503 85 295 3.0 8.0 0.00 0.00 0.00 66 1015.5
20260903165403 85 295 3.0 8.0 0.00 0.00 0.00 66 1015.6
20260903165305 85 295 3.0 8.0 0.00 0.00 0.00 66 1015.6
20260903165203 85 294 3.0 8.0 0.00 0.00 0.00 66 1015.5
20260903165103 85 295 2.0 8.0 0.00 0.00 0.00 66 1015.6
20260903165003 85 294 3.0 10.0 0.00 0.00 0.00 66 1015.5
20260903164903 85 294 3.0 10.0 0.00 0.00 0.00 66 1015.6
20260903164803 85 294 3.0 10.0 0.00 0.00 0.00 66 1015.5
20260903164703 85 295 3.0 10.0 0.00 0.00 0.00 66 1015.5
20260903164603 85 296 3.0 10.0 0.00 0.00 0.00 66 1015.5
20260903164503 85 297 3.0 10.0 0.00 0.00 0.00 66 1015.5
20260903164403 85 298 3.0 10.0 0.00 0.00 0.00 66 1015.4
20260903164303 85 300 3.0 10.0 0.00 0.00 0.00 66 1015.4
20260903164203 85 299 4.0 10.0 0.00 0.00 0.00 66 1015.4
20260903164103 85 299 4.0 10.0 0.00 0.00 0.00 66 1015.5
20260903164003 85 300 4.0 10.0 0.00 0.00 0.00 65 1015.4
20260903163903 85 299 4.0 9.0 0.00 0.00 0.00 65 1015.3
20260903163803 85 299 4.0 10.0 0.00 0.00 0.00 65 1015.4
20260903163703 85 299 4.0 10.0 0.00 0.00 0.00 65 1015.3
20260903163603 86 298 4.0 10.0 0.00 0.00 0.00 65 1015.4
20260903163503 86 296 4.0 10.0 0.00 0.00 0.00 64 1015.3
20260903163403 86 297 4.0 10.0 0.00 0.00 0.00 64 1015.2
20260903163303 86 296 4.0 10.0 0.00 0.00 0.00 64 1015.3
20260903163203 86 296 4.0 10.0 0.00 0.00 0.00 64 1015.2
20260903163103 86 295 4.0 10.0 0.00 0.00 0.00 64 1015.4
20260903163004 86 296 4.0 10.0 0.00 0.00 0.00 64 1015.3
20260903162903 86 296 4.0 10.0 0.00 0.00 0.00 64 1015.3
20260903162803 86 296 4.0 12.0 0.00 0.00 0.00 64 1015.2
20260903162703 86 296 4.0 12.0 0.00 0.00 0.00 64 1015.3
20260903162603 86 297 4.0 12.0 0.00 0.00 0.00 64 1015.3
20260903162503 86 300 4.0 12.0 0.00 0.00 0.00 64 1015.4
20260903162403 86 299 4.0 12.0 0.00 0.00 0.00 64 1015.5
20260903162306 86 300 4.0 12.0 0.00 0.00 0.00 64 1015.4
20260903162203 86 301 4.0 12.0 0.00 0.00 0.00 63 1015.5
20260903162103 86 301 4.0 12.0 0.00 0.00 0.00 63 1015.5
20260903162003 86 301 4.0 12.0 0.00 0.00 0.00 63 1015.6
20260903161903 86 301 4.0 12.0 0.00 0.00 0.00 63 1015.6
20260903161804 86 301 3.0 8.0 0.00 0.00 0.00 63 1015.6
20260903161704 86 301 3.0 8.0 0.00 0.00 0.00 63 1015.6
20260903161604 86 301 3.0 8.0 0.00 0.00 0.00 63 1015.7
20260903161504 86 298 3.0 9.0 0.00 0.00 0.00 63 1015.6
20260903161404 86 300 4.0 9.0 0.00 0.00 0.00 63 1015.6
20260903161304 86 300 4.0 9.0 0.00 0.00 0.00 63 1015.5
20260903161204 86 299 4.0 9.0 0.00 0.00 0.00 63 1015.5
20260903161104 86 299 4.0 11.0 0.00 0.00 0.00 63 1015.5
20260903161004 86 298 5.0 11.0 0.00 0.00 0.00 63 1015.5
20260903160904 86 300 4.0 11.0 0.00 0.00 0.00 63 1015.4
20260903160804 86 300 5.0 11.0 0.00 0.00 0.00 63 1015.5
20260903160704 86 301 5.0 11.0 0.00 0.00 0.00 63 1015.5
20260903160604 86 301 5.0 11.0 0.00 0.00 0.00 63 1015.5
20260903160504 86 300 5.0 11.0 0.00 0.00 0.00 63 1015.5
20260903160404 86 299 5.0 11.0 0.00 0.00 0.00 63 1015.5
20260903160304 87 299 5.0 11.0 0.00 0.00 0.00 63 1015.5
20260903160204 87 298 5.0 11.0 0.00 0.00 0.00 63 1015.6
20260903160104 87 299 4.0 11.0 0.00 0.00 0.00 62 1015.6
20260903160004 87 299 4.0 13.0 0.00 0.00 0.00 62 1015.5
20260903155904 87 298 5.0 13.0 0.00 0.00 0.00 62 1015.5
20260903155804 87 298 5.0 13.0 0.00 0.00 0.00 62 1015.7
20260903155704 87 297 5.0 13.0 0.00 0.00 0.00 62 1015.6
20260903155604 87 297 5.0 13.0 0.00 0.00 0.00 62 1015.7
20260903155504 87 298 5.0 13.0 0.00 0.00 0.00 62 1015.7
20260903155404 87 297 4.0 13.0 0.00 0.00 0.00 62 1015.7
20260903155306 87 298 4.0 13.0 0.00 0.00 0.00 62 1015.8
20260903155204 87 299 4.0 13.0 0.00 0.00 0.00 62 1015.8
20260903155104 87 299 4.0 13.0 0.00 0.00 0.00 62 1015.7
20260903155004 87 298 4.0 10.0 0.00 0.00 0.00 62 1015.8
20260903154904 87 298 4.0 8.0 0.00 0.00 0.00 62 1015.9
20260903154804 87 297 3.0 8.0 0.00 0.00 0.00 62 1015.9
20260903154704 87 299 3.0 8.0 0.00 0.00 0.00 62 1015.8
20260903154604 87 299 4.0 8.0 0.00 0.00 0.00 62 1015.8
20260903154504 87 298 4.0 8.0 0.00 0.00 0.00 62 1015.7
20260903154404 87 297 5.0 11.0 0.00 0.00 0.00 62 1015.9
20260903154304 87 296 5.0 11.0 0.00 0.00 0.00 62 1015.8
20260903154204 87 296 5.0 11.0 0.00 0.00 0.00 62 1015.8
20260903154104 87 296 5.0 11.0 0.00 0.00 0.00 62 1015.8
20260903154004 87 295 5.0 11.0 0.00 0.00 0.00 62 1015.8
20260903153904 87 294 5.0 12.0 0.00 0.00 0.00 62 1015.9
20260903153804 87 295 5.0 12.0 0.00 0.00 0.00 62 1015.8
20260903153704 87 295 5.0 12.0 0.00 0.00 0.00 62 1015.8
20260903153604 87 295 5.0 12.0 0.00 0.00 0.00 62 1015.8
20260903153504 87 295 4.0 12.0 0.00 0.00 0.00 62 1015.8
20260903153404 87 297 4.0 12.0 0.00 0.00 0.00 62 1015.8
20260903153304 87 298 4.0 12.0 0.00 0.00 0.00 62 1015.8
20260903153204 87 300 4.0 12.0 0.00 0.00 0.00 62 1015.7
20260903153103 87 300 4.0 12.0 0.00 0.00 0.00 62 1015.7
20260903153004 87 301 4.0 12.0 0.00 0.00 0.00 62 1015.7
20260903152903 87 304 3.0 7.0 0.00 0.00 0.00 61 1015.7
20260903152804 87 304 3.0 7.0 0.00 0.00 0.00 61 1015.7
20260903152703 87 305 3.0 8.0 0.00 0.00 0.00 61 1015.7
20260903152604 87 306 3.0 8.0 0.00 0.00 0.00 61 1015.7
20260903152503 87 305 3.0 8.0 0.00 0.00 0.00 61 1015.7
20260903152404 87 304 3.0 8.0 0.00 0.00 0.00 61 1015.7
20260903152306 87 304 3.0 8.0 0.00 0.00 0.00 61 1015.7
20260903152203 87 303 3.0 8.0 0.00 0.00 0.00 61 1015.7
20260903152103 87 304 3.0 8.0 0.00 0.00 0.00 61 1015.7
20260903152004 87 305 3.0 8.0 0.00 0.00 0.00 61 1015.7
20260903151904 87 303 3.0 8.0 0.00 0.00 0.00 61 1015.7
20260903151803 87 302 3.0 8.0 0.00 0.00 0.00 61 1015.6
20260903151704 87 302 3.0 8.0 0.00 0.00 0.00 61 1015.7
20260903151603 87 301 3.0 8.0 0.00 0.00 0.00 61 1015.6
20260903151503 87 302 3.0 8.0 0.00 0.00 0.00 61 1015.6
20260903151403 87 302 4.0 8.0 0.00 0.00 0.00 61 1015.5
20260903151304 87 301 4.0 11.0 0.00 0.00 0.00 61 1015.5
20260903151203 87 300 4.0 11.0 0.00 0.00 0.00 61 1015.5
20260903151103 87 299 4.0 11.0 0.00 0.00 0.00 61 1015.5
20260903151003 87 298 3.0 11.0 0.00 0.00 0.00 61 1015.4
20260903150903 87 300 4.0 11.0 0.00 0.00 0.00 61 1015.4
20260903150803 87 299 4.0 11.0 0.00 0.00 0.00 61 1015.4
20260903150703 87 299 4.0 11.0 0.00 0.00 0.00 61 1015.4
20260903150603 87 299 4.0 11.0 0.00 0.00 0.00 61 1015.4
20260903150504 87 300 3.0 11.0 0.00 0.00 0.00 61 1015.3
20260903150403 87 298 3.0 11.0 0.00 0.00 0.00 61 1015.4
20260903150303 87 298 3.0 8.0 0.00 0.00 0.00 61 1015.4
20260903150203 87 298 3.0 9.0 0.00 0.00 0.00 61 1015.3
20260903150103 87 298 3.0 9.0 0.00 0.00 0.00 61 1015.4
20260903150003 87 296 3.0 9.0 0.00 0.00 0.00 61 1015.4
20260903145903 87 294 3.0 9.0 0.00 0.00 0.00 61 1015.4
20260903145803 87 296 4.0 9.0 0.00 0.00 0.00 61 1015.5
20260903145703 87 296 4.0 9.0 0.00 0.00 0.00 61 1015.5
20260903145603 87 296 4.0 9.0 0.00 0.00 0.00 61 1015.4
20260903145503 87 296 4.0 9.0 0.00 0.00 0.00 61 1015.3
20260903145403 87 297 4.0 9.0 0.00 0.00 0.00 62 1015.4
20260903145306 87 296 4.0 9.0 0.00 0.00 0.00 62 1015.4
20260903145203 87 296 4.0 7.0 0.00 0.00 0.00 62 1015.4
20260903145103 87 296 4.0 7.0 0.00 0.00 0.00 62 1015.4
20260903145003 87 298 4.0 7.0 0.00 0.00 0.00 62 1015.5
20260903144903 87 298 4.0 7.0 0.00 0.00 0.00 62 1015.5
20260903144803 87 296 4.0 7.0 0.00 0.00 0.00 62 1015.4
20260903144703 87 296 4.0 7.0 0.00 0.00 0.00 62 1015.5
20260903144603 87 297 4.0 13.0 0.00 0.00 0.00 62 1015.6
20260903144503 87 298 5.0 13.0 0.00 0.00 0.00 62 1015.6
20260903144403 87 298 4.0 13.0 0.00 0.00 0.00 62 1015.7
20260903144303 87 299 4.0 13.0 0.00 0.00 0.00 62 1015.6
20260903144203 87 299 4.0 13.0 0.00 0.00 0.00 62 1015.6
20260903144103 87 298 5.0 14.0 0.00 0.00 0.00 62 1015.5
20260903144003 87 296 5.0 14.0 0.00 0.00 0.00 62 1015.6
20260903143903 87 296 5.0 14.0 0.00 0.00 0.00 62 1015.6
20260903143803 87 298 5.0 14.0 0.00 0.00 0.00 62 1015.6
20260903143703 87 297 6.0 16.0 0.00 0.00 0.00 62 1015.8
20260903143603 87 296 6.0 16.0 0.00 0.00 0.00 62 1015.7
20260903143503 87 297 6.0 16.0 0.00 0.00 0.00 62 1015.6
20260903143403 87 297 6.0 16.0 0.00 0.00 0.00 62 1015.6
20260903143303 87 297 6.0 16.0 0.00 0.00 0.00 62 1015.7
20260903143203 87 296 6.0 16.0 0.00 0.00 0.00 62 1015.7
20260903143103 87 295 6.0 16.0 0.00 0.00 0.00 61 1015.6
20260903143004 87 296 6.0 16.0 0.00 0.00 0.00 61 1015.7
20260903142903 87 296 5.0 16.0 0.00 0.00 0.00 61 1015.8
20260903142803 88 295 5.0 16.0 0.00 0.00 0.00 61 1015.6
20260903142703 88 296 4.0 14.0 0.00 0.00 0.00 61 1015.8
20260903142603 88 295 4.0 14.0 0.00 0.00 0.00 61 1015.7
20260903142503 87 294 4.0 10.0 0.00 0.00 0.00 61 1015.7
20260903142403 87 295 4.0 10.0 0.00 0.00 0.00 61 1015.7
20260903142306 87 294 4.0 10.0 0.00 0.00 0.00 61 1015.7
20260903142203 87 296 4.0 9.0 0.00 0.00 0.00 61 1015.6
20260903142103 87 297 4.0 9.0 0.00 0.00 0.00 61 1015.7
20260903142003 87 296 4.0 9.0 0.00 0.00 0.00 61 1015.8
20260903141903 87 297 4.0 10.0 0.00 0.00 0.00 61 1015.8
20260903141803 87 297 5.0 11.0 0.00 0.00 0.00 61 1015.8
20260903141703 87 297 6.0 11.0 0.00 0.00 0.00 62 1015.8
20260903141603 87 296 6.0 11.0 0.00 0.00 0.00 62 1015.8
20260903141503 87 297 6.0 11.0 0.00 0.00 0.00 62 1015.8
20260903141403 87 297 6.0 11.0 0.00 0.00 0.00 62 1015.8
20260903141303 87 298 6.0 11.0 0.00 0.00 0.00 61 1015.8
20260903141203 87 297 6.0 15.0 0.00 0.00 0.00 61 1015.8
20260903141103 87 297 6.0 15.0 0.00 0.00 0.00 61 1015.8
20260903141003 87 297 6.0 15.0 0.00 0.00 0.00 61 1015.8
20260903140903 87 297 6.0 15.0 0.00 0.00 0.00 61 1015.9
20260903140803 87 297 6.0 15.0 0.00 0.00 0.00 60 1015.8
20260903140703 88 297 6.0 15.0 0.00 0.00 0.00 60 1015.7
20260903140603 88 298 6.0 15.0 0.00 0.00 0.00 60 1015.7
20260903140503 88 296 6.0 15.0 0.00 0.00 0.00 60 1015.8
20260903140403 88 297 6.0 15.0 0.00 0.00 0.00 60 1015.9
20260903140303 88 296 6.0 15.0 0.00 0.00 0.00 60 1015.9
20260903140203 88 297 6.0 13.0 0.00 0.00 0.00 60 1015.9
20260903140003 88 297 6.0 13.0 0.00 0.00 0.00 60 1015.8
20260903135903 88 297 6.0 13.0 0.00 0.00 0.00 60 1015.9
20260903135803 88 297 6.0 13.0 0.00 0.00 0.00 59 1016.0
20260903135703 88 297 6.0 13.0 0.00 0.00 0.00 60 1015.9
20260903135603 88 296 5.0 13.0 0.00 0.00 0.00 59 1015.9
20260903135503 88 297 5.0 13.0 0.00 0.00 0.00 60 1015.9
20260903135403 88 296 5.0 13.0 0.00 0.00 0.00 60 1015.9
20260903135306 88 297 5.0 13.0 0.00 0.00 0.00 59 1015.9
20260903135203 88 297 5.0 13.0 0.00 0.00 0.00 59 1015.9
20260903135103 88 297 5.0 13.0 0.00 0.00 0.00 59 1015.9
20260903135003 88 297 4.0 13.0 0.00 0.00 0.00 59 1016.0
20260903134903 88 299 4.0 10.0 0.00 0.00 0.00 60 1015.9
20260903134803 88 298 4.0 11.0 0.00 0.00 0.00 60 1015.9
20260903134703 88 298 5.0 11.0 0.00 0.00 0.00 59 1015.9
20260903134603 88 298 4.0 11.0 0.00 0.00 0.00 59 1016.0
20260903134503 88 297 4.0 11.0 0.00 0.00 0.00 59 1015.9
20260903134403 88 297 4.0 11.0 0.00 0.00 0.00 59 1015.9
20260903134303 88 297 4.0 11.0 0.00 0.00 0.00 59 1015.9
20260903134203 88 298 4.0 11.0 0.00 0.00 0.00 59 1016.0
20260903134103 88 296 4.0 11.0 0.00 0.00 0.00 59 1015.9
20260903134004 88 296 4.0 15.0 0.00 0.00 0.00 58 1015.9
20260903133904 88 294 4.0 15.0 0.00 0.00 0.00 58 1015.9
20260903133804 88 296 4.0 15.0 0.00 0.00 0.00 58 1015.9
20260903133704 88 297 4.0 15.0 0.00 0.00 0.00 58 1015.9
20260903133604 88 298 4.0 15.0 0.00 0.00 0.00 58 1015.9
20260903133504 88 299 4.0 15.0 0.00 0.00 0.00 57 1016.0
20260903133404 88 299 4.0 15.0 0.00 0.00 0.00 58 1015.9
20260903133304 88 296 4.0 15.0 0.00 0.00 0.00 59 1016.0
20260903133204 88 296 5.0 15.0 0.00 0.00 0.00 58 1016.0
20260903133104 88 296 4.0 15.0 0.00 0.00 0.00 58 1016.1
20260903133004 88 297 4.0 13.0 0.00 0.00 0.00 58 1016.0
20260903132904 88 299 4.0 13.0 0.00 0.00 0.00 58 1015.9
20260903132804 88 299 5.0 13.0 0.00 0.00 0.00 58 1015.9
20260903132704 88 298 5.0 12.0 0.00 0.00 0.00 58 1015.9
20260903132604 88 299 5.0 12.0 0.00 0.00 0.00 58 1016.0
20260903132504 88 297 5.0 12.0 0.00 0.00 0.00 57 1016.0
20260903132404 88 298 5.0 12.0 0.00 0.00 0.00 57 1015.9
20260903132306 88 299 6.0 12.0 0.00 0.00 0.00 57 1016.0
20260903132204 88 299 5.0 12.0 0.00 0.00 0.00 57 1016.0
20260903132104 88 299 6.0 12.0 0.00 0.00 0.00 58 1015.9
20260903132004 88 298 6.0 12.0 0.00 0.00 0.00 58 1016.0
20260903131904 88 296 6.0 12.0 0.00 0.00 0.00 57 1015.9
20260903131804 88 297 6.0 13.0 0.00 0.00 0.00 57 1015.9
20260903131704 88 296 6.0 13.0 0.00 0.00 0.00 58 1015.9
20260903131604 88 296 6.0 13.0 0.00 0.00 0.00 58 1016.0
20260903131504 88 294 6.0 13.0 0.00 0.00 0.00 57 1015.9
20260903131404 88 294 6.0 13.0 0.00 0.00 0.00 56 1016.0
20260903131304 88 294 6.0 13.0 0.00 0.00 0.00 57 1015.9
20260903131204 88 293 6.0 13.0 0.00 0.00 0.00 57 1016.0
20260903131104 88 292 6.0 13.0 0.00 0.00 0.00 57 1016.0
20260903131004 89 294 5.0 13.0 0.00 0.00 0.00 57 1016.0
20260903130904 89 295 5.0 13.0 0.00 0.00 0.00 57 1015.9
20260903130804 89 295 5.0 12.0 0.00 0.00 0.00 56 1016.0
20260903130704 89 296 5.0 12.0 0.00 0.00 0.00 57 1016.0
20260903130604 89 293 5.0 12.0 0.00 0.00 0.00 57 1015.9
20260903130504 89 295 5.0 11.0 0.00 0.00 0.00 57 1015.9
20260903130404 89 296 5.0 11.0 0.00 0.00 0.00 57 1016.0
20260903130304 89 296 5.0 11.0 0.00 0.00 0.00 57 1016.0
20260903130204 89 296 5.0 11.0 0.00 0.00 0.00 57 1016.0
20260903130104 89 296 5.0 11.0 0.00 0.00 0.00 57 1016.0
20260903130004 89 296 5.0 11.0 0.00 0.00 0.00 56 1016.0
20260903125904 89 297 5.0 11.0 0.00 0.00 0.00 56 1016.1
20260903125804 89 297 5.0 11.0 0.00 0.00 0.00 57 1016.1
20260903125704 89 296 5.0 11.0 0.00 0.00 0.00 57 1016.1
20260903125604 89 298 5.0 11.0 0.00 0.00 0.00 56 1016.1
20260903125503 89 298 5.0 11.0 0.00 0.00 0.00 56 1016.0
20260903125404 89 297 4.0 11.0 0.00 0.00 0.00 56 1016.0
20260903125305 89 297 4.0 11.0 0.00 0.00 0.00 55 1016.0
20260903125203 89 297 5.0 11.0 0.00 0.00 0.00 55 1016.0
20260903125103 89 297 4.0 11.0 0.00 0.00 0.00 56 1016.1
20260903125004 89 297 4.0 11.0 0.00 0.00 0.00 56 1016.0
20260903124904 89 299 4.0 13.0 0.00 0.00 0.00 55 1016.0
20260903124803 89 301 5.0 14.0 0.00 0.00 0.00 55 1016.1
20260903124704 89 300 5.0 14.0 0.00 0.00 0.00 55 1015.9
20260903124603 89 300 5.0 14.0 0.00 0.00 0.00 54 1015.9
20260903124503 89 300 5.0 14.0 0.00 0.00 0.00 54 1015.9
20260903124403 89 300 5.0 14.0 0.00 0.00 0.00 54 1015.9
20260903124303 89 300 5.0 14.0 0.00 0.00 0.00 55 1015.9
20260903124204 89 301 5.0 14.0 0.00 0.00 0.00 55 1016.0
20260903124103 89 302 5.0 14.0 0.00 0.00 0.00 55 1015.9
20260903124004 89 302 5.0 14.0 0.00 0.00 0.00 54 1015.9
20260903123903 89 299 4.0 14.0 0.00 0.00 0.00 55 1016.0
20260903123803 89 298 4.0 10.0 0.00 0.00 0.00 56 1016.0
20260903123703 89 299 4.0 10.0 0.00 0.00 0.00 56 1015.9
20260903123603 89 297 4.0 10.0 0.00 0.00 0.00 56 1015.9
20260903123504 89 298 4.0 10.0 0.00 0.00 0.00 55 1016.0
20260903123403 89 298 4.0 10.0 0.00 0.00 0.00 55 1016.0
20260903123303 89 299 4.0 10.0 0.00 0.00 0.00 55 1016.0
20260903123203 89 299 5.0 10.0 0.00 0.00 0.00 55 1016.0
20260903123103 89 298 5.0 12.0 0.00 0.00 0.00 55 1015.9
20260903123003 89 298 5.0 12.0 0.00 0.00 0.00 55 1016.0
20260903122903 89 298 5.0 12.0 0.00 0.00 0.00 55 1016.0
20260903122803 89 297 6.0 15.0 0.00 0.00 0.00 56 1016.0
20260903122703 89 297 6.0 15.0 0.00 0.00 0.00 55 1016.0
20260903122603 89 298 6.0 15.0 0.00 0.00 0.00 54 1016.1
20260903122503 88 299 7.0 15.0 0.00 0.00 0.00 54 1016.0